Observation data for Van Horn on 11/07/2019      Previous  Date       Current Mesonet Observations  Soil Data  Daily Summary Page  Observations in Plain Language
KVA1 070600Z 04005KT 17/13 A3015 RMK A01 T01650128  RH  079%=      5-min Rain = 0
KVA1 070601Z 04006KT 17/13 A3015 RMK A01 T01650128  RH  079%=      5-min Rain = 0
KVA1 070602Z 04006KT 17/13 A3015 RMK A01 T01650128  RH  079%=      5-min Rain = 0
KVA1 070603Z 04005KT 17/13 A3015 RMK A01 T01650129  RH  079%=      5-min Rain = 0
KVA1 070604Z 04005KT 17/13 A3015 RMK A01 T01650128  RH  079%=      5-min Rain = 0
KVA1 070605Z 04004KT 17/13 A3015 RMK A01 T01660129  RH  079%=      5-min Rain = 0
KVA1 070606Z 05005KT 17/13 A3015 RMK A01 T01650129  RH  079%=      5-min Rain = 0
KVA1 070607Z 06004KT 17/13 A3015 RMK A01 T01650129  RH  079%=      5-min Rain = 0
KVA1 070608Z 06005KT 17/13 A3015 RMK A01 T01650129  RH  079%=      5-min Rain = 0
KVA1 070609Z 06004KT 17/13 A3015 RMK A01 T01650130  RH  079%=      5-min Rain = 0
KVA1 070610Z 06005KT 17/13 A3015 RMK A01 T01650130  RH  080%=      5-min Rain = 0
KVA1 070611Z 06005KT 17/13 A3015 RMK A01 T01650130  RH  080%=      5-min Rain = 0
KVA1 070612Z 06005KT 17/13 A3015 RMK A01 T01650130  RH  080%=      5-min Rain = 0
KVA1 070613Z 05004KT 17/13 A3015 RMK A01 T01650130  RH  080%=      5-min Rain = 0
KVA1 070614Z 06005KT 16/13 A3015 RMK A01 T01640129  RH  080%=      5-min Rain = 0
KVA1 070615Z 06005KT 16/13 A3015 RMK A01 T01640130  RH  080%=      5-min Rain = 0
KVA1 070616Z 07005KT 16/13 A3015 RMK A01 T01640130  RH  080%=      5-min Rain = 0
KVA1 070617Z 07005KT 16/13 A3015 RMK A01 T01640130  RH  080%=      5-min Rain = 0
KVA1 070618Z 06005KT 16/13 A3015 RMK A01 T01640129  RH  080%=      5-min Rain = 0
KVA1 070619Z 06005KT 16/13 A3015 RMK A01 T01630129  RH  080%=      5-min Rain = 0
KVA1 070620Z 05007KT 16/13 A3015 RMK A01 T01630129  RH  080%=      5-min Rain = 0
KVA1 070621Z 05006KT 16/13 A3015 RMK A01 T01640130  RH  080%=      5-min Rain = 0
KVA1 070622Z 04007KT 16/13 A3015 RMK A01 T01630129  RH  080%=      5-min Rain = 0
KVA1 070623Z 05007KT 16/13 A3015 RMK A01 T01640129  RH  080%=      5-min Rain = 0
KVA1 070624Z 04007KT 16/13 A3015 RMK A01 T01640130  RH  080%=      5-min Rain = 0
KVA1 070625Z 05006KT 16/13 A3015 RMK A01 T01630129  RH  080%=      5-min Rain = 0
KVA1 070626Z 05006KT 16/13 A3015 RMK A01 T01630129  RH  080%=      5-min Rain = 0
KVA1 070627Z 05007KT 16/13 A3015 RMK A01 T01630129  RH  081%=      5-min Rain = 0
KVA1 070628Z 05007KT 16/13 A3015 RMK A01 T01620129  RH  081%=      5-min Rain = 0
KVA1 070629Z 05007KT 16/13 A3015 RMK A01 T01620129  RH  081%=      5-min Rain = 0
KVA1 070630Z 04006KT 16/13 A3015 RMK A01 T01620129  RH  081%=      5-min Rain = 0
KVA1 070631Z 03007KT 16/13 A3015 RMK A01 T01620129  RH  081%=      5-min Rain = 0
KVA1 070632Z 04007KT 16/13 A3015 RMK A01 T01610129  RH  081%=      5-min Rain = 0
KVA1 070633Z 03006KT 16/13 A3015 RMK A01 T01610129  RH  081%=      5-min Rain = 0
KVA1 070634Z 02007KT 16/13 A3015 RMK A01 T01610129  RH  082%=      5-min Rain = 0
KVA1 070635Z 02008KT 16/13 A3015 RMK A01 T01600130  RH  082%=      5-min Rain = 0
KVA1 070636Z 03007KT 16/13 A3015 RMK A01 T01600131  RH  083%=      5-min Rain = 0
KVA1 070637Z 03008KT 16/13 A3015 RMK A01 T01600131  RH  083%=      5-min Rain = 0
KVA1 070638Z 03007KT 16/13 A3015 RMK A01 T01600132  RH  083%=      5-min Rain = 0
KVA1 070639Z 03007KT 16/13 A3015 RMK A01 T01600132  RH  084%=      5-min Rain = 0
KVA1 070640Z 03005KT 16/13 A3015 RMK A01 T01590132  RH  084%=      5-min Rain = 0
KVA1 070641Z 03006KT 16/13 A3015 RMK A01 T01590132  RH  084%=      5-min Rain = 0
KVA1 070642Z 04006KT 16/13 A3015 RMK A01 T01590133  RH  084%=      5-min Rain = 0
KVA1 070643Z 05004KT 16/13 A3015 RMK A01 T01580132  RH  085%=      5-min Rain = 0
KVA1 070644Z 06005KT 16/13 A3015 RMK A01 T01580133  RH  085%=      5-min Rain = 0
KVA1 070645Z 06004KT 16/13 A3015 RMK A01 T01580133  RH  085%=      5-min Rain = 0
KVA1 070646Z 06005KT 16/13 A3015 RMK A01 T01580133  RH  085%=      5-min Rain = 0
KVA1 070647Z 05005KT 16/13 A3015 RMK A01 T01580133  RH  085%=      5-min Rain = 0
KVA1 070648Z 06004KT 16/13 A3015 RMK A01 T01580133  RH  085%=      5-min Rain = 0
KVA1 070649Z 06005KT 16/13 A3015 RMK A01 T01570133  RH  086%=      5-min Rain = 0
KVA1 070650Z 07004KT 16/13 A3015 RMK A01 T01570133  RH  086%=      5-min Rain = 0
KVA1 070651Z 08005KT 16/13 A3015 RMK A01 T01570133  RH  086%=      5-min Rain = 0
KVA1 070652Z 09005KT 16/13 A3015 RMK A01 T01570134  RH  086%=      5-min Rain = 0
KVA1 070653Z 08004KT 16/13 A3015 RMK A01 T01570134  RH  086%=      5-min Rain = 0
KVA1 070654Z 07005KT 16/13 A3015 RMK A01 T01570134  RH  086%=      5-min Rain = 0
KVA1 070655Z 05005KT 16/13 A3015 RMK A01 T01560134  RH  087%=      5-min Rain = 0
KVA1 070656Z 03005KT 16/13 A3015 RMK A01 T01560134  RH  087%=      5-min Rain = 0
KVA1 070657Z 02004KT 16/13 A3015 RMK A01 T01560134  RH  087%=      5-min Rain = 0
KVA1 070658Z 01006KT 16/14 A3015 RMK A01 T01560135  RH  087%=      5-min Rain = 0
KVA1 070659Z 01006KT 16/13 A3015 RMK A01 T01550134  RH  087%=      5-min Rain = 0
KVA1 070700Z 01006KT 16/14 A3015 RMK A01 T01550135  RH  088%=      5-min Rain = 0
KVA1 070701Z 01007KT 16/14 A3015 RMK A01 T01550136  RH  088%=      5-min Rain = 0
KVA1 070702Z 01008KT 16/14 A3015 RMK A01 T01550136  RH  089%=      5-min Rain = 0
KVA1 070703Z 01008KT 15/14 A3015 RMK A01 T01540136  RH  089%=      5-min Rain = 0
KVA1 070704Z 01008KT 15/14 A3015 RMK A01 T01540136  RH  089%=      5-min Rain = 0
KVA1 070705Z 01006KT 15/14 A3015 RMK A01 T01540137  RH  089%=      5-min Rain = 0
KVA1 070706Z 01007KT 15/14 A3015 RMK A01 T01540136  RH  089%=      5-min Rain = 0
KVA1 070707Z 01006KT 15/14 A3016 RMK A01 T01540137  RH  090%=      5-min Rain = 0
KVA1 070708Z 01007KT 15/14 A3016 RMK A01 T01540137  RH  090%=      5-min Rain = 0
KVA1 070709Z 01007KT 15/14 A3016 RMK A01 T01540137  RH  090%=      5-min Rain = 0
KVA1 070710Z 01006KT 15/14 A3016 RMK A01 T01540137  RH  090%=      5-min Rain = 0
KVA1 070711Z 01007KT 15/14 A3016 RMK A01 T01530137  RH  090%=      5-min Rain = 0
KVA1 070712Z 01008KT 15/14 A3016 RMK A01 T01530137  RH  090%=      5-min Rain = 0
KVA1 070713Z 01007KT 15/14 A3016 RMK A01 T01530137  RH  090%=      5-min Rain = 0
KVA1 070714Z 01008KT 15/14 A3016 RMK A01 T01530137  RH  090%=      5-min Rain = 0
KVA1 070715Z 01007KT 15/14 A3016 RMK A01 T01530137  RH  090%=      5-min Rain = 0
KVA1 070716Z 01008KT 15/14 A3016 RMK A01 T01530137  RH  090%=      5-min Rain = 0
KVA1 070717Z 01007KT 15/14 A3016 RMK A01 T01520137  RH  091%=      5-min Rain = 0
KVA1 070718Z 01007KT 15/14 A3016 RMK A01 T01520137  RH  091%=      5-min Rain = 0
KVA1 070719Z 01006KT 15/14 A3016 RMK A01 T01520137  RH  091%=      5-min Rain = 0
KVA1 070720Z 01006KT 15/14 A3016 RMK A01 T01520137  RH  091%=      5-min Rain = 0
KVA1 070721Z 02006KT 15/14 A3016 RMK A01 T01520137  RH  091%=      5-min Rain = 0
KVA1 070722Z 01007KT 15/14 A3016 RMK A01 T01510137  RH  091%=      5-min Rain = 0
KVA1 070723Z 02006KT 15/14 A3016 RMK A01 T01520137  RH  091%=      5-min Rain = 0
KVA1 070724Z 02006KT 15/14 A3016 RMK A01 T01510137  RH  091%=      5-min Rain = 0
KVA1 070725Z 01007KT 15/14 A3016 RMK A01 T01510137  RH  091%=      5-min Rain = 0
KVA1 070726Z 02007KT 15/14 A3016 RMK A01 T01510137  RH  091%=      5-min Rain = 0
KVA1 070727Z 02006KT 15/14 A3016 RMK A01 T01510137  RH  092%=      5-min Rain = 0
KVA1 070728Z 02007KT 15/14 A3016 RMK A01 T01510137  RH  092%=      5-min Rain = 0
KVA1 070729Z 02006KT 15/14 A3016 RMK A01 T01510137  RH  092%=      5-min Rain = 0
KVA1 070730Z 02007KT 15/14 A3016 RMK A01 T01510137  RH  092%=      5-min Rain = 0
KVA1 070731Z 02006KT 15/14 A3016 RMK A01 T01510138  RH  092%=      5-min Rain = 0
KVA1 070732Z 02006KT 15/14 A3016 RMK A01 T01500137  RH  092%=      5-min Rain = 0
KVA1 070733Z 02007KT 15/14 A3016 RMK A01 T01500138  RH  092%=      5-min Rain = 0
KVA1 070734Z 02006KT 15/14 A3016 RMK A01 T01500138  RH  092%=      5-min Rain = 0
KVA1 070735Z 02006KT 15/14 A3016 RMK A01 T01500137  RH  092%=      5-min Rain = 0
KVA1 070736Z 02006KT 15/14 A3016 RMK A01 T01500137  RH  092%=      5-min Rain = 0
KVA1 070737Z 02005KT 15/14 A3016 RMK A01 T01500137  RH  092%=      5-min Rain = 0
KVA1 070738Z 02006KT 15/14 A3016 RMK A01 T01490137  RH  093%=      5-min Rain = 0
KVA1 070739Z 02006KT 15/14 A3016 RMK A01 T01490137  RH  093%=      5-min Rain = 0
KVA1 070740Z 02006KT 15/14 A3016 RMK A01 T01490137  RH  093%=      5-min Rain = 0
KVA1 070741Z 02006KT 15/14 A3016 RMK A01 T01490138  RH  093%=      5-min Rain = 0
KVA1 070742Z 02006KT 15/14 A3016 RMK A01 T01480137  RH  093%=      5-min Rain = 0
KVA1 070743Z 01006KT 15/14 A3016 RMK A01 T01480137  RH  093%=      5-min Rain = 0
KVA1 070744Z 01006KT 15/14 A3016 RMK A01 T01480137  RH  093%=      5-min Rain = 0
KVA1 070745Z 02005KT 15/14 A3016 RMK A01 T01480138  RH  093%=      5-min Rain = 0
KVA1 070746Z 02005KT 15/14 A3016 RMK A01 T01480137  RH  093%=      5-min Rain = 0
KVA1 070747Z 02005KT 15/14 A3017 RMK A01 T01480137  RH  093%=      5-min Rain = 0
KVA1 070748Z 01006KT 15/14 A3017 RMK A01 T01470137  RH  093%=      5-min Rain = 0
KVA1 070749Z 01006KT 15/14 A3017 RMK A01 T01470137  RH  093%=      5-min Rain = 0
KVA1 070750Z 02006KT 15/14 A3017 RMK A01 T01470137  RH  094%=      5-min Rain = 0
KVA1 070751Z 02006KT 15/14 A3017 RMK A01 T01470137  RH  094%=      5-min Rain = 0
KVA1 070752Z 02006KT 15/14 A3017 RMK A01 T01470137  RH  094%=      5-min Rain = 0
KVA1 070753Z 02006KT 15/14 A3017 RMK A01 T01470137  RH  094%=      5-min Rain = 0
KVA1 070754Z 02007KT 15/14 A3017 RMK A01 T01470137  RH  094%=      5-min Rain = 0
KVA1 070755Z 02006KT 15/14 A3017 RMK A01 T01470137  RH  094%=      5-min Rain = 0
KVA1 070756Z 02006KT 15/14 A3017 RMK A01 T01470137  RH  094%=      5-min Rain = 0
KVA1 070757Z 02006KT 15/14 A3017 RMK A01 T01470137  RH  094%=      5-min Rain = 0
KVA1 070758Z 02006KT 15/14 A3016 RMK A01 T01460137  RH  094%=      5-min Rain = 0
KVA1 070759Z 02006KT 15/14 A3016 RMK A01 T01460136  RH  094%=      5-min Rain = 0
KVA1 070800Z 02007KT 15/14 A3016 RMK A01 T01460137  RH  094%=      5-min Rain = 0
KVA1 070801Z 02007KT 15/14 A3016 RMK A01 T01460137  RH  094%=      5-min Rain = 0
KVA1 070802Z 02007KT 15/14 A3016 RMK A01 T01460137  RH  094%=      5-min Rain = 0
KVA1 070803Z 02007KT 15/14 A3016 RMK A01 T01460137  RH  094%=      5-min Rain = 0
KVA1 070804Z 02007KT 15/14 A3016 RMK A01 T01460137  RH  094%=      5-min Rain = 0
KVA1 070805Z 02007KT 15/14 A3015 RMK A01 T01460136  RH  094%=      5-min Rain = 0
KVA1 070806Z 02006KT 15/14 A3015 RMK A01 T01460136  RH  094%=      5-min Rain = 0
KVA1 070807Z 02006KT 15/14 A3015 RMK A01 T01460137  RH  094%=      5-min Rain = 0
KVA1 070808Z 02006KT 15/14 A3015 RMK A01 T01460137  RH  094%=      5-min Rain = 0
KVA1 070809Z 02005KT 15/14 A3015 RMK A01 T01460137  RH  094%=      5-min Rain = 0
KVA1 070810Z 02006KT 15/14 A3015 RMK A01 T01450136  RH  094%=      5-min Rain = 0
KVA1 070811Z 02005KT 15/14 A3015 RMK A01 T01450136  RH  094%=      5-min Rain = 0
KVA1 070812Z 02005KT 15/14 A3015 RMK A01 T01450136  RH  094%=      5-min Rain = 0
KVA1 070813Z 02006KT 15/14 A3015 RMK A01 T01450136  RH  094%=      5-min Rain = 0
KVA1 070814Z 02006KT 15/14 A3015 RMK A01 T01450136  RH  094%=      5-min Rain = 0
KVA1 070815Z 02006KT 15/14 A3015 RMK A01 T01450136  RH  094%=      5-min Rain = 0
KVA1 070816Z 02006KT 15/14 A3015 RMK A01 T01450136  RH  095%=      5-min Rain = 0
KVA1 070817Z 02005KT 15/14 A3015 RMK A01 T01450136  RH  095%=      5-min Rain = 0
KVA1 070818Z 02005KT 15/14 A3015 RMK A01 T01450136  RH  095%=      5-min Rain = 0
KVA1 070819Z 02004KT 14/14 A3016 RMK A01 T01440136  RH  095%=      5-min Rain = 0
KVA1 070820Z 01005KT 14/14 A3016 RMK A01 T01440136  RH  095%=      5-min Rain = 0
KVA1 070821Z 01005KT 14/14 A3016 RMK A01 T01440136  RH  095%=      5-min Rain = 0
KVA1 070822Z 02005KT 14/14 A3016 RMK A01 T01440136  RH  095%=      5-min Rain = 0
KVA1 070823Z 02005KT 14/14 A3016 RMK A01 T01440136  RH  095%=      5-min Rain = 0
KVA1 070824Z 02004KT 14/14 A3016 RMK A01 T01440136  RH  095%=      5-min Rain = 0
KVA1 070825Z 02005KT 14/14 A3016 RMK A01 T01440136  RH  095%=      5-min Rain = 0
KVA1 070826Z 01005KT 14/14 A3016 RMK A01 T01440136  RH  095%=      5-min Rain = 0
KVA1 070827Z 02005KT 14/14 A3016 RMK A01 T01440136  RH  095%=      5-min Rain = 0
KVA1 070828Z 02005KT 14/14 A3016 RMK A01 T01440136  RH  095%=      5-min Rain = 0
KVA1 070829Z 02004KT 15/14 A3016 RMK A01 T01450137  RH  095%=      5-min Rain = 0
KVA1 070830Z 02005KT 15/14 A3016 RMK A01 T01450137  RH  095%=      5-min Rain = 0
KVA1 070831Z 02004KT 15/14 A3016 RMK A01 T01450137  RH  095%=      5-min Rain = 0
KVA1 070832Z 01004KT 15/14 A3016 RMK A01 T01450137  RH  095%=      5-min Rain = 0
KVA1 070833Z 02004KT 15/14 A3016 RMK A01 T01450137  RH  095%=      5-min Rain = 0
KVA1 070834Z 02004KT 15/14 A3016 RMK A01 T01450137  RH  095%=      5-min Rain = 0
KVA1 070835Z 02005KT 15/14 A3016 RMK A01 T01460137  RH  095%=      5-min Rain = 0
KVA1 070836Z 02005KT 15/14 A3016 RMK A01 T01460137  RH  095%=      5-min Rain = 0
KVA1 070837Z 02004KT 15/14 A3016 RMK A01 T01460137  RH  095%=      5-min Rain = 0
KVA1 070838Z 02005KT 15/14 A3016 RMK A01 T01460137  RH  095%=      5-min Rain = 0
KVA1 070839Z 02004KT 15/14 A3016 RMK A01 T01460137  RH  094%=      5-min Rain = 0
KVA1 070840Z 02004KT 15/14 A3016 RMK A01 T01460138  RH  094%=      5-min Rain = 0
KVA1 070841Z 02005KT 15/14 A3016 RMK A01 T01470138  RH  094%=      5-min Rain = 0
KVA1 070842Z 02004KT 15/14 A3016 RMK A01 T01460137  RH  094%=      5-min Rain = 0
KVA1 070843Z 02004KT 15/14 A3016 RMK A01 T01460137  RH  094%=      5-min Rain = 0
KVA1 070844Z 02005KT 15/14 A3016 RMK A01 T01460137  RH  094%=      5-min Rain = 0
KVA1 070845Z 02005KT 15/14 A3016 RMK A01 T01470137  RH  094%=      5-min Rain = 0
KVA1 070846Z 02003KT 15/14 A3015 RMK A01 T01470138  RH  094%=      5-min Rain = 0
KVA1 070847Z 02005KT 15/14 A3015 RMK A01 T01470138  RH  094%=      5-min Rain = 0
KVA1 070848Z 02005KT 15/14 A3015 RMK A01 T01470138  RH  094%=      5-min Rain = 0
KVA1 070849Z 02004KT 15/14 A3015 RMK A01 T01470138  RH  094%=      5-min Rain = 0
KVA1 070850Z 03004KT 15/14 A3015 RMK A01 T01470137  RH  094%=      5-min Rain = 0
KVA1 070851Z 03004KT 15/14 A3015 RMK A01 T01470137  RH  094%=      5-min Rain = 0
KVA1 070852Z 03004KT 15/14 A3015 RMK A01 T01470138  RH  094%=      5-min Rain = 0
KVA1 070853Z 03004KT 15/14 A3015 RMK A01 T01470138  RH  094%=      5-min Rain = 0
KVA1 070854Z 03004KT 15/14 A3015 RMK A01 T01470138  RH  094%=      5-min Rain = 0
KVA1 070855Z 03003KT 15/14 A3015 RMK A01 T01470137  RH  094%=      5-min Rain = 0
KVA1 070856Z 03004KT 15/14 A3015 RMK A01 T01470137  RH  094%=      5-min Rain = 0
KVA1 070857Z 03004KT 15/14 A3015 RMK A01 T01470137  RH  094%=      5-min Rain = 0
KVA1 070858Z 03004KT 15/14 A3015 RMK A01 T01460137  RH  094%=      5-min Rain = 0
KVA1 070859Z 04004KT 15/14 A3015 RMK A01 T01470137  RH  094%=      5-min Rain = 0
KVA1 070900Z 03003KT 15/14 A3015 RMK A01 T01460137  RH  094%=      5-min Rain = 0
KVA1 070901Z 04003KT 15/14 A3015 RMK A01 T01460137  RH  094%=      5-min Rain = 0
KVA1 070902Z 04004KT 15/14 A3015 RMK A01 T01460137  RH  094%=      5-min Rain = 0
KVA1 070903Z 05004KT 15/14 A3015 RMK A01 T01460137  RH  094%=      5-min Rain = 0
KVA1 070904Z 05004KT 15/14 A3015 RMK A01 T01460137  RH  094%=      5-min Rain = 0
KVA1 070905Z 05004KT 15/14 A3015 RMK A01 T01460137  RH  094%=      5-min Rain = 0
KVA1 070906Z 04004KT 15/14 A3015 RMK A01 T01460137  RH  094%=      5-min Rain = 0
KVA1 070907Z 04004KT 15/14 A3015 RMK A01 T01450137  RH  094%=      5-min Rain = 0
KVA1 070908Z 04004KT 15/14 A3015 RMK A01 T01450137  RH  094%=      5-min Rain = 0
KVA1 070909Z 04003KT 15/14 A3015 RMK A01 T01460137  RH  094%=      5-min Rain = 0
KVA1 070910Z 03003KT 15/14 A3015 RMK A01 T01460137  RH  094%=      5-min Rain = 0
KVA1 070911Z 03004KT 15/14 A3015 RMK A01 T01450137  RH  095%=      5-min Rain = 0
KVA1 070912Z 03004KT 15/14 A3015 RMK A01 T01460137  RH  095%=      5-min Rain = 0
KVA1 070913Z 03004KT 15/14 A3015 RMK A01 T01450137  RH  095%=      5-min Rain = 0
KVA1 070914Z 02004KT 15/14 A3015 RMK A01 T01450137  RH  095%=      5-min Rain = 0
KVA1 070915Z 02004KT 15/14 A3015 RMK A01 T01450137  RH  095%=      5-min Rain = 0
KVA1 070916Z 02004KT 15/14 A3015 RMK A01 T01450137  RH  095%=      5-min Rain = 0
KVA1 070917Z 01004KT 15/14 A3016 RMK A01 T01460137  RH  095%=      5-min Rain = 0
KVA1 070918Z 01004KT 15/14 A3016 RMK A01 T01460137  RH  095%=      5-min Rain = 0
KVA1 070919Z 00004KT 15/14 A3016 RMK A01 T01450137  RH  095%=      5-min Rain = 0
KVA1 070920Z 01004KT 15/14 A3016 RMK A01 T01450137  RH  095%=      5-min Rain = 0
KVA1 070921Z 01004KT 15/14 A3016 RMK A01 T01460137  RH  095%=      5-min Rain = 0
KVA1 070922Z 01004KT 15/14 A3016 RMK A01 T01460137  RH  095%=      5-min Rain = 0
KVA1 070923Z 02004KT 15/14 A3016 RMK A01 T01460137  RH  095%=      5-min Rain = 0
KVA1 070924Z 02005KT 15/14 A3015 RMK A01 T01460137  RH  095%=      5-min Rain = 0
KVA1 070925Z 02005KT 15/14 A3016 RMK A01 T01460137  RH  095%=      5-min Rain = 0
KVA1 070926Z 02005KT 15/14 A3016 RMK A01 T01450137  RH  095%=      5-min Rain = 0
KVA1 070927Z 02005KT 15/14 A3016 RMK A01 T01460137  RH  095%=      5-min Rain = 0
KVA1 070928Z 02004KT 15/14 A3016 RMK A01 T01460137  RH  095%=      5-min Rain = 0
KVA1 070929Z 02004KT 15/14 A3016 RMK A01 T01460137  RH  094%=      5-min Rain = 0
KVA1 070930Z 02006KT 15/14 A3016 RMK A01 T01460137  RH  094%=      5-min Rain = 0
KVA1 070931Z 02005KT 15/14 A3016 RMK A01 T01460137  RH  094%=      5-min Rain = 0
KVA1 070932Z 02005KT 15/14 A3016 RMK A01 T01460137  RH  094%=      5-min Rain = 0
KVA1 070933Z 02005KT 15/14 A3016 RMK A01 T01460137  RH  094%=      5-min Rain = 0
KVA1 070934Z 02006KT 15/14 A3016 RMK A01 T01460137  RH  094%=      5-min Rain = 0
KVA1 070935Z 02005KT 15/14 A3016 RMK A01 T01460137  RH  094%=      5-min Rain = 0
KVA1 070936Z 02006KT 15/14 A3016 RMK A01 T01460137  RH  094%=      5-min Rain = 0
KVA1 070937Z 02006KT 15/14 A3016 RMK A01 T01460137  RH  094%=      5-min Rain = 0
KVA1 070938Z 02006KT 15/14 A3016 RMK A01 T01460137  RH  094%=      5-min Rain = 0
KVA1 070939Z 02006KT 15/14 A3016 RMK A01 T01460137  RH  094%=      5-min Rain = 0
KVA1 070940Z 01005KT 15/14 A3016 RMK A01 T01460137  RH  094%=      5-min Rain = 0
KVA1 070941Z 02005KT 15/14 A3016 RMK A01 T01460137  RH  094%=      5-min Rain = 0
KVA1 070942Z 02005KT 15/14 A3016 RMK A01 T01460137  RH  094%=      5-min Rain = 0
KVA1 070943Z 02005KT 15/14 A3016 RMK A01 T01460137  RH  094%=      5-min Rain = 0
KVA1 070944Z 02005KT 15/14 A3016 RMK A01 T01460137  RH  094%=      5-min Rain = 0
KVA1 070945Z 02005KT 15/14 A3016 RMK A01 T01450136  RH  094%=      5-min Rain = 0
KVA1 070946Z 03006KT 15/14 A3016 RMK A01 T01460137  RH  094%=      5-min Rain = 0
KVA1 070947Z 03005KT 15/14 A3016 RMK A01 T01460137  RH  094%=      5-min Rain = 0
KVA1 070948Z 03005KT 15/14 A3016 RMK A01 T01460137  RH  094%=      5-min Rain = 0
KVA1 070949Z 03006KT 15/14 A3016 RMK A01 T01460137  RH  094%=      5-min Rain = 0
KVA1 070950Z 03005KT 15/14 A3016 RMK A01 T01460137  RH  094%=      5-min Rain = 0
KVA1 070951Z 03006KT 15/14 A3016 RMK A01 T01460137  RH  094%=      5-min Rain = 0
KVA1 070952Z 03006KT 15/14 A3016 RMK A01 T01450137  RH  094%=      5-min Rain = 0
KVA1 070953Z 03006KT 15/14 A3016 RMK A01 T01460137  RH  094%=      5-min Rain = 0
KVA1 070954Z 03005KT 15/14 A3016 RMK A01 T01460137  RH  094%=      5-min Rain = 0
KVA1 070955Z 03006KT 15/14 A3016 RMK A01 T01460137  RH  094%=      5-min Rain = 0
KVA1 070956Z 03005KT 15/14 A3016 RMK A01 T01460137  RH  094%=      5-min Rain = 0
KVA1 070957Z 03004KT 15/14 A3015 RMK A01 T01460137  RH  094%=      5-min Rain = 0
KVA1 070958Z 03005KT 15/14 A3015 RMK A01 T01460137  RH  094%=      5-min Rain = 0
KVA1 070959Z 03005KT 15/14 A3015 RMK A01 T01460137  RH  094%=      5-min Rain = 0
KVA1 071000Z 04005KT 15/14 A3015 RMK A01 T01460137  RH  094%=      5-min Rain = 0
KVA1 071001Z 03005KT 15/14 A3015 RMK A01 T01460137  RH  094%=      5-min Rain = 0
KVA1 071002Z 04006KT 15/14 A3015 RMK A01 T01460137  RH  094%=      5-min Rain = 0
KVA1 071003Z 03005KT 15/14 A3015 RMK A01 T01460137  RH  094%=      5-min Rain = 0
KVA1 071004Z 03005KT 15/14 A3015 RMK A01 T01460136  RH  094%=      5-min Rain = 0
KVA1 071005Z 03006KT 15/14 A3015 RMK A01 T01460137  RH  094%=      5-min Rain = 0
KVA1 071006Z 03005KT 15/14 A3015 RMK A01 T01460137  RH  094%=      5-min Rain = 0
KVA1 071007Z 03005KT 15/14 A3015 RMK A01 T01460136  RH  094%=      5-min Rain = 0
KVA1 071008Z 03005KT 15/14 A3015 RMK A01 T01450136  RH  094%=      5-min Rain = 0
KVA1 071009Z 02005KT 15/14 A3015 RMK A01 T01450136  RH  094%=      5-min Rain = 0
KVA1 071010Z 02006KT 15/14 A3015 RMK A01 T01460136  RH  094%=      5-min Rain = 0
KVA1 071011Z 02006KT 15/14 A3016 RMK A01 T01460137  RH  094%=      5-min Rain = 0
KVA1 071012Z 02006KT 15/14 A3016 RMK A01 T01460137  RH  094%=      5-min Rain = 0
KVA1 071013Z 02005KT 15/14 A3016 RMK A01 T01460137  RH  094%=      5-min Rain = 0
KVA1 071014Z 02005KT 15/14 A3016 RMK A01 T01460137  RH  094%=      5-min Rain = 0
KVA1 071015Z 02006KT 15/14 A3016 RMK A01 T01460137  RH  094%=      5-min Rain = 0
KVA1 071016Z 02006KT 15/14 A3016 RMK A01 T01470137  RH  094%=      5-min Rain = 0
KVA1 071017Z 03006KT 15/14 A3016 RMK A01 T01460137  RH  094%=      5-min Rain = 0
KVA1 071018Z 03006KT 15/14 A3016 RMK A01 T01470137  RH  094%=      5-min Rain = 0
KVA1 071019Z 03004KT 15/14 A3016 RMK A01 T01470137  RH  094%=      5-min Rain = 0
KVA1 071020Z 04006KT 15/14 A3016 RMK A01 T01470137  RH  094%=      5-min Rain = 0
KVA1 071021Z 04006KT 15/14 A3016 RMK A01 T01470137  RH  093%=      5-min Rain = 0
KVA1 071022Z 04004KT 15/14 A3016 RMK A01 T01470136  RH  093%=      5-min Rain = 0
KVA1 071023Z 04005KT 15/14 A3016 RMK A01 T01470137  RH  093%=      5-min Rain = 0
KVA1 071024Z 03005KT 15/14 A3016 RMK A01 T01470137  RH  093%=      5-min Rain = 0
KVA1 071025Z 03005KT 15/14 A3016 RMK A01 T01470137  RH  093%=      5-min Rain = 0
KVA1 071026Z 03005KT 15/14 A3016 RMK A01 T01480137  RH  093%=      5-min Rain = 0
KVA1 071027Z 04005KT 15/14 A3016 RMK A01 T01470137  RH  093%=      5-min Rain = 0
KVA1 071028Z 04004KT 15/14 A3015 RMK A01 T01470136  RH  093%=      5-min Rain = 0
KVA1 071029Z 04005KT 15/14 A3015 RMK A01 T01470136  RH  093%=      5-min Rain = 0
KVA1 071030Z 03005KT 15/14 A3015 RMK A01 T01470136  RH  093%=      5-min Rain = 0
KVA1 071031Z 03005KT 15/14 A3015 RMK A01 T01480137  RH  093%=      5-min Rain = 0
KVA1 071032Z 03005KT 15/14 A3015 RMK A01 T01470136  RH  093%=      5-min Rain = 0
KVA1 071033Z 03006KT 15/14 A3015 RMK A01 T01480137  RH  093%=      5-min Rain = 0
KVA1 071034Z 03006KT 15/14 A3015 RMK A01 T01480137  RH  093%=      5-min Rain = 0
KVA1 071035Z 04006KT 15/14 A3015 RMK A01 T01480136  RH  093%=      5-min Rain = 0
KVA1 071036Z 04004KT 15/14 A3015 RMK A01 T01480136  RH  093%=      5-min Rain = 0
KVA1 071037Z 04005KT 15/14 A3015 RMK A01 T01480136  RH  093%=      5-min Rain = 0
KVA1 071038Z 04005KT 15/14 A3015 RMK A01 T01480136  RH  093%=      5-min Rain = 0
KVA1 071039Z 04005KT 15/14 A3015 RMK A01 T01480136  RH  093%=      5-min Rain = 0
KVA1 071040Z 04006KT 15/14 A3015 RMK A01 T01480137  RH  093%=      5-min Rain = 0
KVA1 071041Z 04006KT 15/14 A3015 RMK A01 T01480137  RH  093%=      5-min Rain = 0
KVA1 071042Z 04005KT 15/14 A3016 RMK A01 T01480136  RH  093%=      5-min Rain = 0
KVA1 071043Z 04005KT 15/14 A3016 RMK A01 T01490137  RH  092%=      5-min Rain = 0
KVA1 071044Z 04006KT 15/14 A3016 RMK A01 T01490137  RH  092%=      5-min Rain = 0
KVA1 071045Z 04006KT 15/14 A3016 RMK A01 T01490136  RH  092%=      5-min Rain = 0
KVA1 071046Z 04007KT 15/14 A3016 RMK A01 T01490136  RH  092%=      5-min Rain = 0
KVA1 071047Z 04006KT 15/14 A3016 RMK A01 T01490136  RH  092%=      5-min Rain = 0
KVA1 071048Z 04007KT 15/14 A3016 RMK A01 T01490136  RH  092%=      5-min Rain = 0
KVA1 071049Z 05007KT 15/14 A3016 RMK A01 T01490136  RH  092%=      5-min Rain = 0
KVA1 071050Z 05004KT 15/14 A3016 RMK A01 T01490136  RH  092%=      5-min Rain = 0
KVA1 071051Z 05004KT 15/14 A3016 RMK A01 T01500136  RH  092%=      5-min Rain = 0
KVA1 071052Z 05006KT 15/14 A3016 RMK A01 T01500136  RH  092%=      5-min Rain = 0
KVA1 071053Z 04006KT 15/14 A3016 RMK A01 T01500136  RH  092%=      5-min Rain = 0
KVA1 071054Z 05004KT 15/14 A3016 RMK A01 T01500136  RH  092%=      5-min Rain = 0
KVA1 071055Z 05005KT 15/14 A3016 RMK A01 T01490136  RH  091%=      5-min Rain = 0
KVA1 071056Z 05005KT 15/14 A3016 RMK A01 T01500136  RH  091%=      5-min Rain = 0
KVA1 071057Z 04006KT 15/14 A3016 RMK A01 T01500136  RH  091%=      5-min Rain = 0
KVA1 071058Z 05006KT 15/14 A3016 RMK A01 T01500136  RH  091%=      5-min Rain = 0
KVA1 071059Z 05005KT 15/14 A3016 RMK A01 T01500136  RH  091%=      5-min Rain = 0
KVA1 071100Z 05004KT 15/14 A3016 RMK A01 T01500136  RH  091%=      5-min Rain = 0
KVA1 071101Z 05005KT 15/14 A3016 RMK A01 T01500136  RH  091%=      5-min Rain = 0
KVA1 071102Z 05004KT 15/14 A3016 RMK A01 T01500136  RH  091%=      5-min Rain = 0
KVA1 071103Z 05006KT 15/14 A3016 RMK A01 T01500135  RH  091%=      5-min Rain = 0
KVA1 071104Z 05005KT 15/14 A3016 RMK A01 T01500135  RH  091%=      5-min Rain = 0
KVA1 071105Z 05005KT 15/14 A3016 RMK A01 T01500135  RH  091%=      5-min Rain = 0
KVA1 071106Z 04006KT 15/14 A3016 RMK A01 T01500135  RH  091%=      5-min Rain = 0
KVA1 071107Z 05007KT 15/14 A3016 RMK A01 T01500136  RH  091%=      5-min Rain = 0
KVA1 071108Z 04006KT 15/14 A3016 RMK A01 T01500135  RH  091%=      5-min Rain = 0
KVA1 071109Z 04007KT 15/14 A3016 RMK A01 T01500135  RH  091%=      5-min Rain = 0
KVA1 071110Z 04006KT 15/14 A3016 RMK A01 T01500135  RH  091%=      5-min Rain = 0
KVA1 071111Z 04007KT 15/14 A3016 RMK A01 T01500135  RH  091%=      5-min Rain = 0
KVA1 071112Z 04006KT 15/14 A3016 RMK A01 T01500135  RH  091%=      5-min Rain = 0
KVA1 071113Z 04005KT 15/14 A3017 RMK A01 T01500135  RH  091%=      5-min Rain = 0
KVA1 071114Z 03006KT 15/14 A3017 RMK A01 T01500135  RH  091%=      5-min Rain = 0
KVA1 071115Z 03006KT 15/14 A3017 RMK A01 T01500135  RH  091%=      5-min Rain = 0
KVA1 071116Z 03005KT 15/14 A3017 RMK A01 T01500135  RH  091%=      5-min Rain = 0
KVA1 071117Z 03006KT 15/14 A3017 RMK A01 T01500135  RH  091%=      5-min Rain = 0
KVA1 071118Z 03006KT 15/14 A3017 RMK A01 T01500135  RH  091%=      5-min Rain = 0
KVA1 071119Z 03005KT 15/14 A3017 RMK A01 T01500135  RH  091%=      5-min Rain = 0
KVA1 071120Z 03006KT 15/14 A3017 RMK A01 T01500135  RH  091%=      5-min Rain = 0
KVA1 071121Z 03006KT 15/14 A3017 RMK A01 T01500135  RH  091%=      5-min Rain = 0
KVA1 071122Z 03007KT 15/14 A3017 RMK A01 T01500135  RH  091%=      5-min Rain = 0
KVA1 071123Z 03006KT 15/14 A3017 RMK A01 T01500135  RH  091%=      5-min Rain = 0
KVA1 071124Z 02006KT 15/14 A3017 RMK A01 T01500135  RH  091%=      5-min Rain = 0
KVA1 071125Z 03007KT 15/14 A3018 RMK A01 T01500135  RH  091%=      5-min Rain = 0
KVA1 071126Z 02007KT 15/14 A3018 RMK A01 T01500135  RH  091%=      5-min Rain = 0
KVA1 071127Z 02007KT 15/14 A3018 RMK A01 T01490135  RH  091%=      5-min Rain = 0
KVA1 071128Z 03008KT 15/14 A3018 RMK A01 T01490135  RH  091%=      5-min Rain = 0
KVA1 071129Z 03007KT 15/14 A3018 RMK A01 T01490135  RH  091%=      5-min Rain = 0
KVA1 071130Z 03007KT 15/13 A3018 RMK A01 T01490134  RH  091%=      5-min Rain = 0
KVA1 071131Z 02007KT 15/14 A3018 RMK A01 T01490135  RH  091%=      5-min Rain = 0
KVA1 071132Z 02006KT 15/14 A3018 RMK A01 T01490135  RH  091%=      5-min Rain = 0
KVA1 071133Z 02005KT 15/14 A3018 RMK A01 T01490135  RH  091%=      5-min Rain = 0
KVA1 071134Z 02006KT 15/14 A3018 RMK A01 T01490135  RH  091%=      5-min Rain = 0
KVA1 071135Z 02006KT 15/14 A3018 RMK A01 T01490135  RH  091%=      5-min Rain = 0
KVA1 071136Z 03007KT 15/14 A3018 RMK A01 T01490135  RH  091%=      5-min Rain = 0
KVA1 071137Z 03007KT 15/13 A3018 RMK A01 T01480134  RH  091%=      5-min Rain = 0
KVA1 071138Z 02006KT 15/13 A3018 RMK A01 T01480134  RH  091%=      5-min Rain = 0
KVA1 071139Z 03008KT 15/13 A3018 RMK A01 T01480134  RH  091%=      5-min Rain = 0
KVA1 071140Z 02006KT 15/14 A3018 RMK A01 T01480135  RH  091%=      5-min Rain = 0
KVA1 071141Z 02006KT 15/13 A3018 RMK A01 T01480134  RH  091%=      5-min Rain = 0
KVA1 071142Z 02007KT 15/13 A3018 RMK A01 T01480134  RH  091%=      5-min Rain = 0
KVA1 071143Z 02007KT 15/14 A3018 RMK A01 T01490135  RH  091%=      5-min Rain = 0
KVA1 071144Z 03005KT 15/14 A3018 RMK A01 T01480135  RH  091%=      5-min Rain = 0
KVA1 071145Z 02006KT 15/14 A3018 RMK A01 T01480135  RH  091%=      5-min Rain = 0
KVA1 071146Z 02007KT 15/13 A3018 RMK A01 T01480134  RH  091%=      5-min Rain = 0
KVA1 071147Z 03007KT 15/14 A3018 RMK A01 T01480135  RH  091%=      5-min Rain = 0
KVA1 071148Z 03008KT 15/14 A3018 RMK A01 T01480135  RH  091%=      5-min Rain = 0
KVA1 071149Z 03006KT 15/14 A3018 RMK A01 T01490135  RH  091%=      5-min Rain = 0
KVA1 071150Z 04007KT 15/14 A3018 RMK A01 T01480135  RH  091%=      5-min Rain = 0
KVA1 071151Z 04007KT 15/13 A3018 RMK A01 T01480134  RH  091%=      5-min Rain = 0
KVA1 071152Z 04009KT 15/14 A3018 RMK A01 T01480135  RH  091%=      5-min Rain = 0
KVA1 071153Z 04008KT 15/14 A3018 RMK A01 T01480135  RH  091%=      5-min Rain = 0
KVA1 071154Z 04008KT 15/14 A3018 RMK A01 T01480135  RH  091%=      5-min Rain = 0
KVA1 071155Z 04006KT 15/14 A3018 RMK A01 T01480135  RH  092%=      5-min Rain = 0
KVA1 071156Z 04006KT 15/13 A3018 RMK A01 T01480134  RH  092%=      5-min Rain = 0
KVA1 071157Z 04007KT 15/14 A3018 RMK A01 T01480135  RH  092%=      5-min Rain = 0
KVA1 071158Z 03007KT 15/13 A3018 RMK A01 T01480134  RH  092%=      5-min Rain = 0
KVA1 071159Z 03007KT 15/13 A3018 RMK A01 T01480134  RH  092%=      5-min Rain = 0
KVA1 071200Z 03007KT 15/13 A3018 RMK A01 T01480134  RH  092%=      5-min Rain = 0
KVA1 071201Z 03008KT 15/13 A3018 RMK A01 T01480134  RH  091%=      5-min Rain = 0
KVA1 071202Z 04010KT 15/13 A3018 RMK A01 T01480134  RH  091%=      5-min Rain = 0
KVA1 071203Z 04009KT 15/13 A3018 RMK A01 T01480134  RH  091%=      5-min Rain = 0
KVA1 071204Z 04007KT 15/13 A3018 RMK A01 T01480134  RH  091%=      5-min Rain = 0
KVA1 071205Z 04007KT 15/13 A3018 RMK A01 T01480134  RH  091%=      5-min Rain = 0
KVA1 071206Z 04006KT 15/13 A3018 RMK A01 T01480134  RH  091%=      5-min Rain = 0
KVA1 071207Z 03006KT 15/13 A3018 RMK A01 T01480134  RH  091%=      5-min Rain = 0
KVA1 071208Z 04009KT 15/13 A3018 RMK A01 T01480134  RH  091%=      5-min Rain = 0
KVA1 071209Z 04009KT 15/13 A3018 RMK A01 T01490134  RH  091%=      5-min Rain = 0
KVA1 071210Z 04007KT 15/13 A3018 RMK A01 T01480134  RH  091%=      5-min Rain = 0
KVA1 071211Z 04006KT 15/13 A3018 RMK A01 T01480134  RH  091%=      5-min Rain = 0
KVA1 071212Z 04008KT 15/13 A3019 RMK A01 T01480134  RH  091%=      5-min Rain = 0
KVA1 071213Z 04009KT 15/13 A3019 RMK A01 T01480134  RH  091%=      5-min Rain = 0
KVA1 071214Z 04008KT 15/13 A3019 RMK A01 T01480134  RH  091%=      5-min Rain = 0
KVA1 071215Z 04009KT 15/14 A3019 RMK A01 T01490135  RH  091%=      5-min Rain = 0
KVA1 071216Z 04009KT 15/14 A3019 RMK A01 T01480135  RH  091%=      5-min Rain = 0
KVA1 071217Z 04010KT 15/14 A3019 RMK A01 T01480135  RH  091%=      5-min Rain = 0
KVA1 071218Z 04009KT 15/14 A3019 RMK A01 T01490135  RH  092%=      5-min Rain = 0
KVA1 071219Z 04009KT 15/14 A3019 RMK A01 T01480135  RH  092%=      5-min Rain = 0
KVA1 071220Z 04010KT 15/14 A3019 RMK A01 T01490135  RH  092%=      5-min Rain = 0
KVA1 071221Z 04009KT 15/14 A3019 RMK A01 T01480135  RH  092%=      5-min Rain = 0
KVA1 071222Z 04008KT 15/14 A3019 RMK A01 T01480135  RH  092%=      5-min Rain = 0
KVA1 071223Z 04009KT 15/14 A3019 RMK A01 T01490135  RH  092%=      5-min Rain = 0
KVA1 071224Z 05008KT 15/14 A3019 RMK A01 T01480135  RH  092%=      5-min Rain = 0
KVA1 071225Z 05009KT 15/14 A3019 RMK A01 T01480135  RH  092%=      5-min Rain = 0
KVA1 071226Z 04008KT 15/14 A3019 RMK A01 T01480135  RH  092%=      5-min Rain = 0
KVA1 071227Z 05008KT 15/14 A302 RMK A01 T01480135  RH  092%=      5-min Rain = 0
KVA1 071228Z 04009KT 15/14 A302 RMK A01 T01480135  RH  092%=      5-min Rain = 0
KVA1 071229Z 04009KT 15/14 A302 RMK A01 T01480135  RH  092%=      5-min Rain = 0
KVA1 071230Z 04007KT 15/14 A302 RMK A01 T01480135  RH  092%=      5-min Rain = 0
KVA1 071231Z 05008KT 15/14 A302 RMK A01 T01490135  RH  092%=      5-min Rain = 0
KVA1 071232Z 05009KT 15/14 A302 RMK A01 T01480135  RH  092%=      5-min Rain = 0
KVA1 071233Z 05009KT 15/14 A302 RMK A01 T01480135  RH  092%=      5-min Rain = 0
KVA1 071234Z 05008KT 15/14 A302 RMK A01 T01480135  RH  092%=      5-min Rain = 0
KVA1 071235Z 04009KT 15/14 A302 RMK A01 T01490135  RH  092%=      5-min Rain = 0
KVA1 071236Z 05008KT 15/14 A302 RMK A01 T01490135  RH  091%=      5-min Rain = 0
KVA1 071237Z 05008KT 15/14 A302 RMK A01 T01490135  RH  091%=      5-min Rain = 0
KVA1 071238Z 05010KT 15/14 A302 RMK A01 T01490135  RH  091%=      5-min Rain = 0
KVA1 071239Z 04009KT 15/14 A302 RMK A01 T01490135  RH  091%=      5-min Rain = 0
KVA1 071240Z 05008KT 15/14 A302 RMK A01 T01490135  RH  091%=      5-min Rain = 0
KVA1 071241Z 05008KT 15/14 A302 RMK A01 T01490135  RH  091%=      5-min Rain = 0
KVA1 071242Z 05009KT 15/14 A302 RMK A01 T01490135  RH  091%=      5-min Rain = 0
KVA1 071243Z 05010KT 15/14 A302 RMK A01 T01490135  RH  091%=      5-min Rain = 0
KVA1 071244Z 05010KT 15/14 A302 RMK A01 T01490135  RH  091%=      5-min Rain = 0
KVA1 071245Z 06009KT 15/14 A302 RMK A01 T01500135  RH  091%=      5-min Rain = 0
KVA1 071246Z 05008KT 15/14 A302 RMK A01 T01500135  RH  091%=      5-min Rain = 0
KVA1 071247Z 05009KT 15/13 A302 RMK A01 T01500134  RH  091%=      5-min Rain = 0
KVA1 071248Z 05008KT 15/13 A302 RMK A01 T01500134  RH  090%=      5-min Rain = 0
KVA1 071249Z 05009KT 15/14 A302 RMK A01 T01500135  RH  090%=      5-min Rain = 0
KVA1 071250Z 05007KT 15/13 A302 RMK A01 T01500134  RH  090%=      5-min Rain = 0
KVA1 071251Z 05008KT 15/13 A302 RMK A01 T01500134  RH  090%=      5-min Rain = 0
KVA1 071252Z 05011KT 15/13 A302 RMK A01 T01500134  RH  090%=      5-min Rain = 0
KVA1 071253Z 05009KT 15/13 A302 RMK A01 T01500134  RH  090%=      5-min Rain = 0
KVA1 071254Z 05008KT 15/13 A3021 RMK A01 T01510134  RH  090%=      5-min Rain = 0
KVA1 071255Z 05009KT 15/13 A3021 RMK A01 T01500134  RH  090%=      5-min Rain = 0
KVA1 071256Z 04009KT 15/13 A3021 RMK A01 T01500134  RH  090%=      5-min Rain = 0
KVA1 071257Z 04008KT 15/13 A3021 RMK A01 T01510134  RH  090%=      5-min Rain = 0
KVA1 071258Z 04007KT 15/13 A3021 RMK A01 T01510134  RH  089%=      5-min Rain = 0
KVA1 071259Z 04008KT 15/13 A3021 RMK A01 T01510134  RH  089%=      5-min Rain = 0
KVA1 071300Z 04009KT 15/13 A3021 RMK A01 T01510134  RH  089%=      5-min Rain = 0
KVA1 071301Z 04009KT 15/13 A3021 RMK A01 T01510134  RH  089%=      5-min Rain = 0
KVA1 071302Z 04008KT 15/13 A3021 RMK A01 T01510134  RH  089%=      5-min Rain = 0
KVA1 071303Z 04010KT 15/13 A3021 RMK A01 T01510134  RH  089%=      5-min Rain = 0
KVA1 071304Z 04009KT 15/13 A3021 RMK A01 T01510134  RH  089%=      5-min Rain = 0
KVA1 071305Z 04010KT 15/13 A3021 RMK A01 T01510134  RH  089%=      5-min Rain = 0
KVA1 071306Z 04008KT 15/13 A3021 RMK A01 T01510134  RH  089%=      5-min Rain = 0
KVA1 071307Z 04007KT 15/13 A3021 RMK A01 T01520134  RH  089%=      5-min Rain = 0
KVA1 071308Z 04008KT 15/13 A3021 RMK A01 T01520134  RH  089%=      5-min Rain = 0
KVA1 071309Z 04010KT 15/13 A3021 RMK A01 T01520134  RH  089%=      5-min Rain = 0
KVA1 071310Z 04010KT 15/13 A3021 RMK A01 T01520134  RH  089%=      5-min Rain = 0
KVA1 071311Z 04009KT 15/13 A3021 RMK A01 T01510134  RH  089%=      5-min Rain = 0
KVA1 071312Z 05009KT 15/13 A3021 RMK A01 T01520134  RH  089%=      5-min Rain = 0
KVA1 071313Z 04008KT 15/13 A3022 RMK A01 T01510134  RH  089%=      5-min Rain = 0
KVA1 071314Z 03010KT 15/13 A3022 RMK A01 T01510134  RH  089%=      5-min Rain = 0
KVA1 071315Z 04010KT 15/13 A3022 RMK A01 T01520134  RH  089%=      5-min Rain = 0
KVA1 071316Z 04011KT 15/13 A3022 RMK A01 T01520134  RH  089%=      5-min Rain = 0
KVA1 071317Z 04009KT 15/13 A3022 RMK A01 T01520134  RH  089%=      5-min Rain = 0
KVA1 071318Z 03007KT 15/13 A3022 RMK A01 T01520134  RH  089%=      5-min Rain = 0
KVA1 071319Z 04010KT 15/13 A3022 RMK A01 T01520134  RH  089%=      5-min Rain = 0
KVA1 071320Z 03010KT 15/13 A3022 RMK A01 T01520134  RH  089%=      5-min Rain = 0
KVA1 071321Z 03013KT 15/13 A3022 RMK A01 T01520134  RH  089%=      5-min Rain = 0
KVA1 071322Z 03012KT 15/13 A3022 RMK A01 T01510134  RH  089%=      5-min Rain = 0
KVA1 071323Z 04009KT 15/14 A3023 RMK A01 T01520135  RH  090%=      5-min Rain = 0
KVA1 071324Z 03011KT 15/14 A3023 RMK A01 T01510135  RH  090%=      5-min Rain = 0
KVA1 071325Z 03011KT 15/14 A3023 RMK A01 T01510135  RH  090%=      5-min Rain = 0
KVA1 071326Z 03012KT 15/14 A3023 RMK A01 T01510135  RH  090%=      5-min Rain = 0
KVA1 071327Z 03014KT 15/14 A3023 RMK A01 T01510135  RH  090%=      5-min Rain = 0
KVA1 071328Z 03012KT 15/14 A3023 RMK A01 T01510135  RH  090%=      5-min Rain = 0
KVA1 071329Z 03011KT 15/14 A3024 RMK A01 T01510135  RH  090%=      5-min Rain = 0
KVA1 071330Z 03011KT 15/14 A3024 RMK A01 T01510135  RH  090%=      5-min Rain = 0
KVA1 071331Z 03009KT 15/14 A3024 RMK A01 T01510135  RH  090%=      5-min Rain = 0
KVA1 071332Z 03011KT 15/14 A3024 RMK A01 T01510135  RH  090%=      5-min Rain = 0
KVA1 071333Z 04012KT 15/14 A3024 RMK A01 T01510135  RH  090%=      5-min Rain = 0
KVA1 071334Z 05012KT 15/14 A3024 RMK A01 T01510135  RH  090%=      5-min Rain = 0
KVA1 071335Z 05012KT 15/14 A3024 RMK A01 T01510135  RH  090%=      5-min Rain = 0
KVA1 071336Z 04011KT 15/14 A3024 RMK A01 T01510135  RH  090%=      5-min Rain = 0
KVA1 071337Z 05011KT 15/13 A3024 RMK A01 T01500134  RH  090%=      5-min Rain = 0
KVA1 071338Z 05012KT 15/13 A3024 RMK A01 T01500134  RH  090%=      5-min Rain = 0
KVA1 071339Z 05010KT 15/13 A3024 RMK A01 T01500134  RH  090%=      5-min Rain = 0
KVA1 071340Z 05011KT 15/13 A3024 RMK A01 T01500134  RH  090%=      5-min Rain = 0
KVA1 071341Z 05009KT 15/13 A3024 RMK A01 T01500134  RH  090%=      5-min Rain = 0
KVA1 071342Z 05011KT 15/13 A3024 RMK A01 T01500134  RH  090%=      5-min Rain = 0
KVA1 071343Z 04009KT 15/13 A3024 RMK A01 T01500134  RH  090%=      5-min Rain = 0
KVA1 071344Z 04009KT 15/13 A3024 RMK A01 T01500134  RH  090%=      5-min Rain = 0
KVA1 071345Z 05010KT 15/13 A3024 RMK A01 T01500134  RH  090%=      5-min Rain = 0
KVA1 071346Z 03010KT 15/13 A3024 RMK A01 T01500134  RH  090%=      5-min Rain = 0
KVA1 071347Z 04011KT 15/13 A3024 RMK A01 T01500134  RH  090%=      5-min Rain = 0
KVA1 071348Z 03009KT 15/13 A3025 RMK A01 T01500134  RH  090%=      5-min Rain = 0
KVA1 071349Z 04010KT 15/13 A3025 RMK A01 T01500134  RH  090%=      5-min Rain = 0
KVA1 071350Z 04011KT 15/13 A3025 RMK A01 T01500133  RH  090%=      5-min Rain = 0
KVA1 071351Z 03010KT 15/13 A3025 RMK A01 T01500133  RH  090%=      5-min Rain = 0
KVA1 071352Z 03011KT 15/13 A3025 RMK A01 T01500133  RH  090%=      5-min Rain = 0
KVA1 071353Z 03011KT 15/13 A3025 RMK A01 T01500133  RH  090%=      5-min Rain = 0
KVA1 071354Z 03011G16KT 15/13 A3025 RMK A01 T01500134  RH  090%=      5-min Rain = 0
KVA1 071355Z 04010KT 15/13 A3025 RMK A01 T01500134  RH  090%=      5-min Rain = 0
KVA1 071356Z 03011KT 15/13 A3025 RMK A01 T01500134  RH  090%=      5-min Rain = 0
KVA1 071357Z 03011KT 15/13 A3025 RMK A01 T01500134  RH  090%=      5-min Rain = 0
KVA1 071358Z 04009KT 15/14 A3025 RMK A01 T01500135  RH  091%=      5-min Rain = 0
KVA1 071359Z 04009KT 15/14 A3025 RMK A01 T01490135  RH  091%=      5-min Rain = 0
KVA1 071400Z 03007KT 15/14 A3025 RMK A01 T01490135  RH  091%=      5-min Rain = 0
KVA1 071401Z 03010KT 15/14 A3025 RMK A01 T01490135  RH  091%=      5-min Rain = 0
KVA1 071402Z 03009G14KT 15/14 A3025 RMK A01 T01490135  RH  092%=      5-min Rain = 0
KVA1 071403Z 03009KT 15/14 A3025 RMK A01 T01490136  RH  092%=      5-min Rain = 0
KVA1 071404Z 04008KT 15/14 A3025 RMK A01 T01480136  RH  092%=      5-min Rain = 0
KVA1 071405Z 04009KT 15/14 A3026 RMK A01 T01480135  RH  092%=      5-min Rain = 0
KVA1 071406Z 04008KT 15/14 A3026 RMK A01 T01480135  RH  092%=      5-min Rain = 0
KVA1 071407Z 04010KT 15/14 A3026 RMK A01 T01480135  RH  092%=      5-min Rain = 0
KVA1 071408Z 04010KT 15/14 A3026 RMK A01 T01480135  RH  092%=      5-min Rain = 0
KVA1 071409Z 04012KT 15/13 A3026 RMK A01 T01470134  RH  092%=      5-min Rain = 0
KVA1 071410Z 04011KT 15/13 A3026 RMK A01 T01470133  RH  091%=      5-min Rain = 0
KVA1 071411Z 03014KT 15/13 A3026 RMK A01 T01470133  RH  091%=      5-min Rain = 0
KVA1 071412Z 04010G17KT 15/13 A3026 RMK A01 T01480132  RH  091%=      5-min Rain = 0
KVA1 071413Z 04011KT 15/13 A3026 RMK A01 T01480132  RH  090%=      5-min Rain = 0
KVA1 071414Z 04012KT 15/13 A3026 RMK A01 T01470132  RH  090%=      5-min Rain = 0
KVA1 071415Z 04011KT 15/13 A3026 RMK A01 T01470131  RH  090%=      5-min Rain = 0
KVA1 071416Z 04012KT 15/13 A3026 RMK A01 T01480131  RH  090%=      5-min Rain = 0
KVA1 071417Z 03013KT 15/13 A3026 RMK A01 T01470131  RH  090%=      5-min Rain = 0
KVA1 071418Z 03015KT 15/13 A3026 RMK A01 T01470130  RH  090%=      5-min Rain = 0
KVA1 071419Z 03013KT 15/13 A3026 RMK A01 T01470130  RH  090%=      5-min Rain = 0
KVA1 071420Z 03012KT 15/13 A3027 RMK A01 T01470130  RH  090%=      5-min Rain = 0
KVA1 071421Z 03014KT 15/13 A3027 RMK A01 T01470131  RH  090%=      5-min Rain = 0
KVA1 071422Z 03011KT 15/13 A3027 RMK A01 T01470130  RH  090%=      5-min Rain = 0
KVA1 071423Z 03012KT 15/13 A3027 RMK A01 T01460130  RH  090%=      5-min Rain = 0
KVA1 071424Z 03015KT 15/13 A3027 RMK A01 T01460129  RH  090%=      5-min Rain = 0
KVA1 071425Z 03012KT 15/13 A3027 RMK A01 T01450129  RH  090%=      5-min Rain = 0
KVA1 071426Z 03014KT 15/13 A3027 RMK A01 T01450129  RH  090%=      5-min Rain = 0
KVA1 071427Z 04010G16KT 15/13 A3027 RMK A01 T01450129  RH  090%=      5-min Rain = 0
KVA1 071428Z 03011KT 14/13 A3027 RMK A01 T01440129  RH  090%=      5-min Rain = 0
KVA1 071429Z 03012KT 14/13 A3027 RMK A01 T01440129  RH  091%=      5-min Rain = 0
KVA1 071430Z 04012KT 14/13 A3027 RMK A01 T01440129  RH  091%=      5-min Rain = 0
KVA1 071431Z 04013KT 14/13 A3027 RMK A01 T01440129  RH  091%=      5-min Rain = 0
KVA1 071432Z 04013KT 14/13 A3027 RMK A01 T01440129  RH  091%=      5-min Rain = 0
KVA1 071433Z 03013KT 14/13 A3027 RMK A01 T01430130  RH  091%=      5-min Rain = 0
KVA1 071434Z 03012KT 14/13 A3027 RMK A01 T01430129  RH  091%=      5-min Rain = 0
KVA1 071435Z 03012KT 14/13 A3027 RMK A01 T01430129  RH  091%=      5-min Rain = 0
KVA1 071436Z 03011KT 14/13 A3027 RMK A01 T01430130  RH  092%=      5-min Rain = 0
KVA1 071437Z 03012KT 14/13 A3028 RMK A01 T01430130  RH  092%=      5-min Rain = 0
KVA1 071438Z 04012KT 14/13 A3028 RMK A01 T01430129  RH  092%=      5-min Rain = 0
KVA1 071439Z 03010KT 14/13 A3028 RMK A01 T01420129  RH  092%=      5-min Rain = 0
KVA1 071440Z 02013KT 14/13 A3028 RMK A01 T01420130  RH  092%=      5-min Rain = 0
KVA1 071441Z 02011KT 14/13 A3028 RMK A01 T01430130  RH  092%=      5-min Rain = 0
KVA1 071442Z 03010KT 14/13 A3028 RMK A01 T01420130  RH  092%=      5-min Rain = 0
KVA1 071443Z 03015G25KT 14/13 A3029 RMK A01 T01420130  RH  092%=      5-min Rain = 0
KVA1 071444Z 03021G26KT 14/12 A3029 RMK A01 T01380116  RH  087%=      5-min Rain = 0
KVA1 071445Z 03019G24KT 13/10 A3029 RMK A01 T01290099  RH  082%=      5-min Rain = 0
KVA1 071446Z 03016G23KT 12/10 A3029 RMK A01 T01240096  RH  083%=      5-min Rain = 0
KVA1 071447Z 03020G26KT 12/09 A3029 RMK A01 T01200093  RH  084%=      5-min Rain = 0
KVA1 071448Z 03016G23KT 12/09 A3029 RMK A01 T01170091  RH  084%=      5-min Rain = 0
KVA1 071449Z 03015KT 12/09 A303 RMK A01 T01160091  RH  085%=      5-min Rain = 0
KVA1 071450Z 03015G24KT 11/09 A303 RMK A01 T01140090  RH  085%=      5-min Rain = 0
KVA1 071451Z 03020KT 11/09 A303 RMK A01 T01130089  RH  085%=      5-min Rain = 0
KVA1 071452Z 03016KT 11/09 A303 RMK A01 T01110087  RH  086%=      5-min Rain = 0
KVA1 071453Z 03018G24KT 11/09 A303 RMK A01 T01090087  RH  086%=      5-min Rain = 0
KVA1 071454Z 03018G23KT 11/09 A3031 RMK A01 T01080085  RH  086%=      5-min Rain = 0
KVA1 071455Z 03016KT 11/08 A3031 RMK A01 T01070084  RH  086%=      5-min Rain = 0
KVA1 071456Z 02016G21KT 11/08 A3031 RMK A01 T01060083  RH  086%=      5-min Rain = 0
KVA1 071457Z 02013KT 10/08 A3031 RMK A01 T01040082  RH  086%=      5-min Rain = 0
KVA1 071458Z 03017KT 10/08 A3031 RMK A01 T01040081  RH  086%=      5-min Rain = 0
KVA1 071459Z 02017G23KT 10/08 A3031 RMK A01 T01030080  RH  086%=      5-min Rain = 0
KVA1 071500Z 03019KT 10/08 A3031 RMK A01 T01020079  RH  086%=      5-min Rain = 0
KVA1 071501Z 02017G23KT 10/08 A3031 RMK A01 T01010078  RH  086%=      5-min Rain = 0
KVA1 071502Z 03019KT 10/08 A3031 RMK A01 T01000077  RH  086%=      5-min Rain = 0
KVA1 071503Z 03019G24KT 10/08 A3031 RMK A01 T00990076  RH  085%=      5-min Rain = 0
KVA1 071504Z 02018G23KT 10/08 A3032 RMK A01 T00990075  RH  085%=      5-min Rain = 0
KVA1 071505Z 02014G19KT 10/08 A3032 RMK A01 T00980075  RH  086%=      5-min Rain = 0
KVA1 071506Z 02016G21KT 10/08 A3032 RMK A01 T00980076  RH  086%=      5-min Rain = 0
KVA1 071507Z 02016KT 10/08 A3032 RMK A01 T00980075  RH  086%=      5-min Rain = 0
KVA1 071508Z 03017G22KT 10/08 A3032 RMK A01 T00970075  RH  086%=      5-min Rain = 0
KVA1 071509Z 02016G21KT 10/07 A3032 RMK A01 T00970074  RH  086%=      5-min Rain = 0
KVA1 071510Z 02018KT 10/07 A3032 RMK A01 T00960072  RH  085%=      5-min Rain = 0
KVA1 071511Z 02015G20KT 10/07 A3033 RMK A01 T00950072  RH  085%=      5-min Rain = 0
KVA1 071512Z 02017G22KT 10/07 A3033 RMK A01 T00950072  RH  086%=      5-min Rain = 0
KVA1 071513Z 02017G22KT 10/07 A3033 RMK A01 T00950072  RH  086%=      5-min Rain = 0
KVA1 071514Z 02017G22KT 09/07 A3033 RMK A01 T00940071  RH  086%=      5-min Rain = 0
KVA1 071515Z 02016KT 09/07 A3033 RMK A01 T00930070  RH  086%=      5-min Rain = 0
KVA1 071516Z 02015G20KT 09/07 A3033 RMK A01 T00930070  RH  086%=      5-min Rain = 0
KVA1 071517Z 02017KT 09/07 A3033 RMK A01 T00920069  RH  086%=      5-min Rain = 0
KVA1 071518Z 02014G20KT 09/07 A3033 RMK A01 T00910068  RH  086%=      5-min Rain = 0
KVA1 071519Z 02014G21KT 09/07 A3033 RMK A01 T00910068  RH  086%=      5-min Rain = 0
KVA1 071520Z 02014G19KT 09/07 A3033 RMK A01 T00900067  RH  086%=      5-min Rain = 0
KVA1 071521Z 02016KT 09/07 A3033 RMK A01 T00890066  RH  085%=      5-min Rain = 0
KVA1 071522Z 02014KT 09/07 A3033 RMK A01 T00880066  RH  086%=      5-min Rain = 0
KVA1 071523Z 02014KT 09/07 A3034 RMK A01 T00880066  RH  086%=      5-min Rain = 0
KVA1 071524Z 02015KT 09/07 A3034 RMK A01 T00880065  RH  086%=      5-min Rain = 0
KVA1 071525Z 02014KT 09/07 A3034 RMK A01 T00880065  RH  085%=      5-min Rain = 0
KVA1 071526Z 02015KT 09/06 A3034 RMK A01 T00880064  RH  085%=      5-min Rain = 0
KVA1 071527Z 03012G21KT 09/06 A3034 RMK A01 T00880064  RH  085%=      5-min Rain = 0
KVA1 071528Z 04019KT 09/06 A3035 RMK A01 T00880062  RH  084%=      5-min Rain = 0
KVA1 071529Z 03019KT 09/06 A3035 RMK A01 T00870060  RH  083%=      5-min Rain = 0
KVA1 071530Z 02016G21KT 09/06 A3035 RMK A01 T00870061  RH  084%=      5-min Rain = 0
KVA1 071531Z 02018KT 09/06 A3035 RMK A01 T00870061  RH  084%=      5-min Rain = 0
KVA1 071532Z 02017KT 09/06 A3035 RMK A01 T00860061  RH  084%=      5-min Rain = 0
KVA1 071533Z 02017G22KT 09/06 A3035 RMK A01 T00860061  RH  084%=      5-min Rain = 0
KVA1 071534Z 02018KT 09/06 A3035 RMK A01 T00850060  RH  084%=      5-min Rain = 0
KVA1 071535Z 02016G21KT 08/06 A3035 RMK A01 T00840059  RH  084%=      5-min Rain = 0
KVA1 071536Z 03018KT 08/06 A3035 RMK A01 T00840059  RH  084%=      5-min Rain = 0
KVA1 071537Z 03016KT 08/06 A3036 RMK A01 T00830058  RH  084%=      5-min Rain = 0
KVA1 071538Z 02018KT 08/06 A3036 RMK A01 T00830058  RH  084%=      5-min Rain = 0
KVA1 071539Z 03017KT 08/06 A3036 RMK A01 T00820056  RH  084%=      5-min Rain = 0
KVA1 071540Z 03015KT 08/06 A3036 RMK A01 T00810055  RH  084%=      5-min Rain = 0
KVA1 071541Z 02019G25KT 08/06 A3036 RMK A01 T00810055  RH  084%=      5-min Rain = 0
KVA1 071542Z 03019KT 08/05 A3036 RMK A01 T00800054  RH  084%=      5-min Rain = 0
KVA1 071543Z 03020KT 08/05 A3036 RMK A01 T00790054  RH  084%=      5-min Rain = 0
KVA1 071544Z 03019KT 08/05 A3036 RMK A01 T00780053  RH  084%=      5-min Rain = 0
KVA1 071545Z 02018KT 08/05 A3036 RMK A01 T00780053  RH  084%=      5-min Rain = 0
KVA1 071546Z 03017KT 08/05 A3036 RMK A01 T00780054  RH  085%=      5-min Rain = 0
KVA1 071547Z 03016KT 08/05 A3036 RMK A01 T00780054  RH  085%=      5-min Rain = 0
KVA1 071548Z 02017G22KT 08/05 A3036 RMK A01 T00780054  RH  085%=      5-min Rain = 0
KVA1 071549Z 03018KT 08/05 A3036 RMK A01 T00780054  RH  085%=      5-min Rain = 0
KVA1 071550Z 03018G24KT 08/05 A3036 RMK A01 T00770053  RH  085%=      5-min Rain = 0
KVA1 071551Z 04018G23KT 08/05 A3036 RMK A01 T00770053  RH  085%=      5-min Rain = 0
KVA1 071552Z 03016KT 08/05 A3036 RMK A01 T00760051  RH  085%=      5-min Rain = 0
KVA1 071553Z 03019KT 08/05 A3036 RMK A01 T00760051  RH  084%=      5-min Rain = 0
KVA1 071554Z 03019G24KT 08/05 A3036 RMK A01 T00750050  RH  084%=      5-min Rain = 0
KVA1 071555Z 03018KT 07/05 A3036 RMK A01 T00740050  RH  085%=      5-min Rain = 0
KVA1 071556Z 04019KT 07/05 A3036 RMK A01 T00740050  RH  085%=      5-min Rain = 0
KVA1 071557Z 03015KT 07/05 A3036 RMK A01 T00730050  RH  085%=      5-min Rain = 0
KVA1 071558Z 03018KT 07/05 A3036 RMK A01 T00730050  RH  085%=      5-min Rain = 0
KVA1 071559Z 03016G21KT 07/05 A3036 RMK A01 T00730050  RH  085%=      5-min Rain = 0
KVA1 071600Z 03016KT 07/05 A3036 RMK A01 T00730050  RH  086%=      5-min Rain = 0
KVA1 071601Z 03016G21KT 07/05 A3036 RMK A01 T00730050  RH  086%=      5-min Rain = 0
KVA1 071602Z 03016KT 07/05 A3036 RMK A01 T00730050  RH  085%=      5-min Rain = 0
KVA1 071603Z 03017KT 07/05 A3036 RMK A01 T00730049  RH  085%=      5-min Rain = 0
KVA1 071604Z 03017KT 07/05 A3037 RMK A01 T00720049  RH  085%=      5-min Rain = 0
KVA1 071605Z 03016KT 07/05 A3037 RMK A01 T00710048  RH  085%=      5-min Rain = 0
KVA1 071606Z 03015KT 07/05 A3037 RMK A01 T00710049  RH  086%=      5-min Rain = 0
KVA1 071607Z 03013G21KT 07/05 A3037 RMK A01 T00710049  RH  085%=      5-min Rain = 0
KVA1 071608Z 03015G20KT 07/05 A3037 RMK A01 T00720048  RH  085%=      5-min Rain = 0
KVA1 071609Z 03019KT 07/05 A3037 RMK A01 T00720048  RH  085%=      5-min Rain = 0
KVA1 071610Z 03018KT 07/05 A3037 RMK A01 T00710046  RH  084%=      5-min Rain = 0
KVA1 071611Z 03019KT 07/05 A3037 RMK A01 T00710046  RH  084%=      5-min Rain = 0
KVA1 071612Z 03017G22KT 07/05 A3037 RMK A01 T00710047  RH  085%=      5-min Rain = 0
KVA1 071613Z 03015G20KT 07/05 A3037 RMK A01 T00710047  RH  085%=      5-min Rain = 0
KVA1 071614Z 03019KT 07/05 A3037 RMK A01 T00710046  RH  084%=      5-min Rain = 0
KVA1 071615Z 03017KT 07/05 A3037 RMK A01 T00710046  RH  084%=      5-min Rain = 0
KVA1 071616Z 03020G25KT 07/05 A3036 RMK A01 T00700046  RH  085%=      5-min Rain = 0
KVA1 071617Z 03019G24KT 07/05 A3036 RMK A01 T00690046  RH  085%=      5-min Rain = 0
KVA1 071618Z 03020KT 07/05 A3036 RMK A01 T00690045  RH  085%=      5-min Rain = 0
KVA1 071619Z 03018KT 07/05 A3037 RMK A01 T00680045  RH  085%=      5-min Rain = 0
KVA1 071620Z 03017KT 07/05 A3037 RMK A01 T00680045  RH  085%=      5-min Rain = 0
KVA1 071621Z 04018KT 07/05 A3037 RMK A01 T00680046  RH  085%=      5-min Rain = 0
KVA1 071622Z 03020KT 07/05 A3037 RMK A01 T00690045  RH  085%=      5-min Rain = 0
KVA1 071623Z 03019KT 07/05 A3037 RMK A01 T00690045  RH  085%=      5-min Rain = 0
KVA1 071624Z 03018KT 07/05 A3037 RMK A01 T00690045  RH  085%=      5-min Rain = 0
KVA1 071625Z 04019G24KT 07/05 A3037 RMK A01 T00690045  RH  085%=      5-min Rain = 0
KVA1 071626Z 03020KT 07/05 A3037 RMK A01 T00690045  RH  084%=      5-min Rain = 0
KVA1 071627Z 03018KT 07/05 A3037 RMK A01 T00700045  RH  084%=      5-min Rain = 0
KVA1 071628Z 03017KT 07/05 A3037 RMK A01 T00700045  RH  084%=      5-min Rain = 0
KVA1 071629Z 03016G22KT 07/05 A3037 RMK A01 T00700045  RH  084%=      5-min Rain = 0
KVA1 071630Z 03019KT 07/05 A3037 RMK A01 T00700045  RH  084%=      5-min Rain = 0
KVA1 071631Z 03015KT 07/05 A3037 RMK A01 T00700045  RH  084%=      5-min Rain = 0
KVA1 071632Z 03017G22KT 07/05 A3037 RMK A01 T00700045  RH  084%=      5-min Rain = 0
KVA1 071633Z 03016G21KT 07/04 A3037 RMK A01 T00700044  RH  084%=      5-min Rain = 0
KVA1 071634Z 03018KT 07/05 A3037 RMK A01 T00700045  RH  084%=      5-min Rain = 0
KVA1 071635Z 02016KT 07/04 A3038 RMK A01 T00710044  RH  083%=      5-min Rain = 0
KVA1 071636Z 03016KT 07/04 A3038 RMK A01 T00710044  RH  083%=      5-min Rain = 0
KVA1 071637Z 02014KT 07/05 A3038 RMK A01 T00700045  RH  084%=      5-min Rain = 0
KVA1 071638Z 03021KT 07/04 A3038 RMK A01 T00700044  RH  084%=      5-min Rain = 0
KVA1 071639Z 02016G24KT 07/04 A3038 RMK A01 T00700044  RH  083%=      5-min Rain = 0
KVA1 071640Z 02020G25KT 07/04 A3038 RMK A01 T00700044  RH  083%=      5-min Rain = 0
KVA1 071641Z 02017KT 07/04 A3038 RMK A01 T00700043  RH  083%=      5-min Rain = 0
KVA1 071642Z 02019KT 07/04 A3038 RMK A01 T00700043  RH  083%=      5-min Rain = 0
KVA1 071643Z 02015KT 07/04 A3038 RMK A01 T00700044  RH  084%=      5-min Rain = 0
KVA1 071644Z 02018KT 07/04 A3039 RMK A01 T00700044  RH  084%=      5-min Rain = 0
KVA1 071645Z 02014G19KT 07/04 A3039 RMK A01 T00690044  RH  084%=      5-min Rain = 0
KVA1 071646Z 02015KT 07/04 A3039 RMK A01 T00690044  RH  084%=      5-min Rain = 0
KVA1 071647Z 02015G20KT 07/04 A3039 RMK A01 T00690044  RH  084%=      5-min Rain = 0
KVA1 071648Z 02015G21KT 07/04 A3039 RMK A01 T00700044  RH  084%=      5-min Rain = 0
KVA1 071649Z 02017G23KT 07/04 A3038 RMK A01 T00700044  RH  084%=      5-min Rain = 0
KVA1 071650Z 02016KT 07/04 A3038 RMK A01 T00700044  RH  084%=      5-min Rain = 0
KVA1 071651Z 03016KT 07/05 A3038 RMK A01 T00690045  RH  084%=      5-min Rain = 0
KVA1 071652Z 03017G22KT 07/05 A3038 RMK A01 T00690045  RH  084%=      5-min Rain = 0
KVA1 071653Z 03015G23KT 07/05 A3038 RMK A01 T00690045  RH  084%=      5-min Rain = 0
KVA1 071654Z 03016KT 07/05 A3038 RMK A01 T00690045  RH  085%=      5-min Rain = 0
KVA1 071655Z 03016G21KT 07/05 A3038 RMK A01 T00690045  RH  085%=      5-min Rain = 0
KVA1 071656Z 04016G21KT 07/05 A3038 RMK A01 T00700045  RH  085%=      5-min Rain = 0
KVA1 071657Z 03013G21KT 07/05 A3039 RMK A01 T00690045  RH  085%=      5-min Rain = 0
KVA1 071658Z 02018G23KT 07/05 A3038 RMK A01 T00690045  RH  084%=      5-min Rain = 0
KVA1 071659Z 03019KT 07/04 A3039 RMK A01 T00690044  RH  084%=      5-min Rain = 0
KVA1 071700Z 02019KT 07/04 A3038 RMK A01 T00680043  RH  084%=      5-min Rain = 0
KVA1 071701Z 02018G25KT 07/04 A3039 RMK A01 T00670043  RH  084%=      5-min Rain = 0
KVA1 071702Z 03020KT 07/04 A3039 RMK A01 T00670043  RH  085%=      5-min Rain = 0
KVA1 071703Z 03019KT 07/04 A3039 RMK A01 T00660043  RH  085%=      5-min Rain = 0
KVA1 071704Z 03017G22KT 07/04 A3039 RMK A01 T00650043  RH  086%=      5-min Rain = 0
KVA1 071705Z 03017KT 07/04 A3039 RMK A01 T00650043  RH  086%=      5-min Rain = 0
KVA1 071706Z 02019G24KT 06/04 A3039 RMK A01 T00640041  RH  085%=      5-min Rain = 0
KVA1 071707Z 02019KT 06/04 A3039 RMK A01 T00630040  RH  085%=      5-min Rain = 0
KVA1 071708Z 03017KT 06/04 A3039 RMK A01 T00620039  RH  085%=      5-min Rain = 0
KVA1 071709Z 03018KT 06/04 A3039 RMK A01 T00610039  RH  086%=      5-min Rain = 0
KVA1 071710Z 03019KT 06/04 A3039 RMK A01 T00600038  RH  086%=      5-min Rain = 0
KVA1 071711Z 02015G21KT 06/04 A3039 RMK A01 T00600038  RH  086%=      5-min Rain = 0
KVA1 071712Z 02016G22KT 06/04 A3039 RMK A01 T00600038  RH  086%=      5-min Rain = 0
KVA1 071713Z 02017G22KT 06/04 A3039 RMK A01 T00600038  RH  086%=      5-min Rain = 0
KVA1 071714Z 02016KT 06/04 A3039 RMK A01 T00600038  RH  086%=      5-min Rain = 0
KVA1 071715Z 02018KT 06/04 A3039 RMK A01 T00600037  RH  086%=      5-min Rain = 0
KVA1 071716Z 02018KT 06/04 A3039 RMK A01 T00580037  RH  086%=      5-min Rain = 0
KVA1 071717Z 02018G23KT 06/04 A3039 RMK A01 T00580037  RH  086%=      5-min Rain = 0
KVA1 071718Z 02016G23KT 06/04 A3039 RMK A01 T00570036  RH  086%=      5-min Rain = 0
KVA1 071719Z 02018KT 06/04 A3039 RMK A01 T00570036  RH  086%=      5-min Rain = 0
KVA1 071720Z 02016KT 06/04 A3039 RMK A01 T00560036  RH  087%=      5-min Rain = 0
KVA1 071721Z 02018G24KT 06/04 A3039 RMK A01 T00570036  RH  087%=      5-min Rain = 0
KVA1 071722Z 03016G21KT 06/04 A3039 RMK A01 T00570037  RH  086%=      5-min Rain = 0
KVA1 071723Z 03019KT 06/04 A3039 RMK A01 T00580036  RH  086%=      5-min Rain = 0
KVA1 071724Z 02016KT 06/04 A304 RMK A01 T00580035  RH  086%=      5-min Rain = 0
KVA1 071725Z 02015G21KT 06/04 A304 RMK A01 T00580035  RH  085%=      5-min Rain = 0
KVA1 071726Z 02016G21KT 06/04 A304 RMK A01 T00580035  RH  085%=      5-min Rain = 0
KVA1 071727Z 02014G19KT 06/04 A304 RMK A01 T00580035  RH  085%=      5-min Rain = 0
KVA1 071728Z 02015KT 06/04 A304 RMK A01 T00580035  RH  085%=      5-min Rain = 0
KVA1 071729Z 02018G23KT 06/03 A304 RMK A01 T00590034  RH  084%=      5-min Rain = 0
KVA1 071730Z 02017G22KT 06/03 A3039 RMK A01 T00590034  RH  084%=      5-min Rain = 0
KVA1 071731Z 02016KT 06/03 A3039 RMK A01 T00580033  RH  084%=      5-min Rain = 0
KVA1 071732Z 02016KT 06/03 A3039 RMK A01 T00590034  RH  084%=      5-min Rain = 0
KVA1 071733Z 02016G21KT 06/03 A3039 RMK A01 T00590033  RH  083%=      5-min Rain = 0
KVA1 071734Z 02016G21KT 06/03 A3039 RMK A01 T00590032  RH  083%=      5-min Rain = 0
KVA1 071735Z 02017KT 06/03 A3039 RMK A01 T00590032  RH  083%=      5-min Rain = 0
KVA1 071736Z 03020KT 06/03 A3039 RMK A01 T00590032  RH  083%=      5-min Rain = 0
KVA1 071737Z 02018G23KT 06/03 A3039 RMK A01 T00590032  RH  083%=      5-min Rain = 0
KVA1 071738Z 02015G20KT 06/03 A3039 RMK A01 T00580032  RH  083%=      5-min Rain = 0
KVA1 071739Z 02016KT 06/03 A3039 RMK A01 T00590032  RH  083%=      5-min Rain = 0
KVA1 071740Z 02018KT 06/03 A3039 RMK A01 T00590032  RH  083%=      5-min Rain = 0
KVA1 071741Z 02014KT 06/03 A3039 RMK A01 T00590032  RH  083%=      5-min Rain = 0
KVA1 071742Z 03015KT 06/03 A3039 RMK A01 T00590032  RH  083%=      5-min Rain = 0
KVA1 071743Z 02015G23KT 06/03 A3039 RMK A01 T00610033  RH  082%=      5-min Rain = 0
KVA1 071744Z 02019G24KT 06/03 A3039 RMK A01 T00610032  RH  081%=      5-min Rain = 0
KVA1 071745Z 02018KT 06/03 A3039 RMK A01 T00610031  RH  081%=      5-min Rain = 0
KVA1 071746Z 02018KT 06/03 A3039 RMK A01 T00600030  RH  081%=      5-min Rain = 0
KVA1 071747Z 02018G23KT 06/03 A3039 RMK A01 T00600030  RH  081%=      5-min Rain = 0
KVA1 071748Z 02017G23KT 06/03 A3039 RMK A01 T00600029  RH  080%=      5-min Rain = 0
KVA1 071749Z 03020KT 06/03 A3039 RMK A01 T00600027  RH  079%=      5-min Rain = 0
KVA1 071750Z 03016G21KT 06/03 A304 RMK A01 T00600027  RH  079%=      5-min Rain = 0
KVA1 071751Z 02016G21KT 06/03 A304 RMK A01 T00600027  RH  079%=      5-min Rain = 0
KVA1 071752Z 03018KT 06/03 A304 RMK A01 T00610027  RH  079%=      5-min Rain = 0
KVA1 071753Z 02016KT 06/03 A304 RMK A01 T00610027  RH  079%=      5-min Rain = 0
KVA1 071754Z 02020KT 06/03 A304 RMK A01 T00610027  RH  079%=      5-min Rain = 0
KVA1 071755Z 03014G20KT 06/03 A304 RMK A01 T00600026  RH  078%=      5-min Rain = 0
KVA1 071756Z 03016KT 06/03 A304 RMK A01 T00610027  RH  079%=      5-min Rain = 0
KVA1 071757Z 03019G24KT 06/03 A304 RMK A01 T00620027  RH  078%=      5-min Rain = 0
KVA1 071758Z 02019KT 06/03 A304 RMK A01 T00620026  RH  078%=      5-min Rain = 0
KVA1 071759Z 03017G23KT 06/03 A304 RMK A01 T00610026  RH  078%=      5-min Rain = 0
KVA1 071800Z 03019KT 06/03 A304 RMK A01 T00610026  RH  078%=      5-min Rain = 0
KVA1 071801Z 03015G20KT 06/03 A304 RMK A01 T00610025  RH  078%=      5-min Rain = 0
KVA1 071802Z 03017G22KT 06/03 A304 RMK A01 T00610026  RH  078%=      5-min Rain = 0
KVA1 071803Z 03014KT 06/03 A304 RMK A01 T00620027  RH  078%=      5-min Rain = 0
KVA1 071804Z 03016KT 06/03 A304 RMK A01 T00630026  RH  077%=      5-min Rain = 0
KVA1 071805Z 03019KT 06/03 A304 RMK A01 T00630025  RH  077%=      5-min Rain = 0
KVA1 071806Z 03017KT 06/03 A304 RMK A01 T00630025  RH  077%=      5-min Rain = 0
KVA1 071807Z 02020KT 06/03 A304 RMK A01 T00620025  RH  077%=      5-min Rain = 0
KVA1 071808Z 02018KT 06/02 A304 RMK A01 T00610024  RH  077%=      5-min Rain = 0
KVA1 071809Z 03019KT 06/03 A304 RMK A01 T00610025  RH  077%=      5-min Rain = 0
KVA1 071810Z 02017KT 06/03 A304 RMK A01 T00620026  RH  078%=      5-min Rain = 0
KVA1 071811Z 03019KT 06/03 A304 RMK A01 T00630025  RH  077%=      5-min Rain = 0
KVA1 071812Z 03022KT 06/02 A304 RMK A01 T00630024  RH  076%=      5-min Rain = 0
KVA1 071813Z 03017G24KT 06/03 A304 RMK A01 T00630025  RH  077%=      5-min Rain = 0
KVA1 071814Z 03018G25KT 06/03 A304 RMK A01 T00630026  RH  077%=      5-min Rain = 0
KVA1 071815Z 03016G21KT 06/03 A304 RMK A01 T00630025  RH  077%=      5-min Rain = 0
KVA1 071816Z 03016G25KT 06/03 A304 RMK A01 T00640026  RH  077%=      5-min Rain = 0
KVA1 071817Z 03021G27KT 06/03 A304 RMK A01 T00640025  RH  076%=      5-min Rain = 0
KVA1 071818Z 03019KT 06/03 A3039 RMK A01 T00630025  RH  077%=      5-min Rain = 0
KVA1 071819Z 03019G24KT 06/03 A3039 RMK A01 T00630025  RH  077%=      5-min Rain = 0
KVA1 071820Z 03017KT 06/03 A3039 RMK A01 T00630026  RH  077%=      5-min Rain = 0
KVA1 071821Z 03014KT 06/03 A3039 RMK A01 T00630026  RH  077%=      5-min Rain = 0
KVA1 071822Z 03013KT 07/03 A3039 RMK A01 T00650027  RH  076%=      5-min Rain = 0
KVA1 071823Z 03021G26KT 07/03 A3039 RMK A01 T00660026  RH  076%=      5-min Rain = 0
KVA1 071824Z 03021KT 06/03 A3039 RMK A01 T00640025  RH  076%=      5-min Rain = 0
KVA1 071825Z 03017G23KT 06/02 A3039 RMK A01 T00630024  RH  076%=      5-min Rain = 0
KVA1 071826Z 03020KT 06/03 A3039 RMK A01 T00620025  RH  077%=      5-min Rain = 0
KVA1 071827Z 02017G23KT 06/03 A3039 RMK A01 T00620025  RH  077%=      5-min Rain = 0
KVA1 071828Z 02018KT 06/03 A3039 RMK A01 T00620025  RH  077%=      5-min Rain = 0
KVA1 071829Z 02019G25KT 06/02 A3039 RMK A01 T00620024  RH  077%=      5-min Rain = 0
KVA1 071830Z 03019KT 06/02 A3039 RMK A01 T00620024  RH  077%=      5-min Rain = 0
KVA1 071831Z 03019G25KT 06/03 A3039 RMK A01 T00620025  RH  077%=      5-min Rain = 0
KVA1 071832Z 03018G24KT 06/03 A3039 RMK A01 T00620025  RH  077%=      5-min Rain = 0
KVA1 071833Z 04016KT 06/03 A3039 RMK A01 T00620026  RH  077%=      5-min Rain = 0
KVA1 071834Z 04018KT 06/03 A3038 RMK A01 T00630026  RH  077%=      5-min Rain = 0
KVA1 071835Z 03019KT 06/03 A3038 RMK A01 T00630026  RH  077%=      5-min Rain = 0
KVA1 071836Z 03014KT 06/03 A3038 RMK A01 T00630026  RH  077%=      5-min Rain = 0
KVA1 071837Z 03017G23KT 06/03 A3038 RMK A01 T00640027  RH  077%=      5-min Rain = 0
KVA1 071838Z 03014G21KT 07/03 A3038 RMK A01 T00650027  RH  077%=      5-min Rain = 0
KVA1 071839Z 03018KT 07/03 A3038 RMK A01 T00650027  RH  076%=      5-min Rain = 0
KVA1 071840Z 03019KT 07/03 A3038 RMK A01 T00650026  RH  076%=      5-min Rain = 0
KVA1 071841Z 03019KT 06/03 A3038 RMK A01 T00630025  RH  076%=      5-min Rain = 0
KVA1 071842Z 03018KT 06/03 A3038 RMK A01 T00630026  RH  077%=      5-min Rain = 0
KVA1 071843Z 03016KT 06/03 A3038 RMK A01 T00640026  RH  077%=      5-min Rain = 0
KVA1 071844Z 03017KT 06/03 A3038 RMK A01 T00640027  RH  077%=      5-min Rain = 0
KVA1 071845Z 03020KT 06/03 A3038 RMK A01 T00640026  RH  077%=      5-min Rain = 0
KVA1 071846Z 04018KT 06/03 A3038 RMK A01 T00640026  RH  077%=      5-min Rain = 0
KVA1 071847Z 04018G23KT 06/03 A3038 RMK A01 T00640027  RH  077%=      5-min Rain = 0
KVA1 071848Z 03018KT 06/03 A3037 RMK A01 T00630026  RH  077%=      5-min Rain = 0
KVA1 071849Z 03017KT 06/03 A3038 RMK A01 T00630026  RH  077%=      5-min Rain = 0
KVA1 071850Z 03017G22KT 06/03 A3038 RMK A01 T00630026  RH  077%=      5-min Rain = 0
KVA1 071851Z 03016G21KT 06/03 A3038 RMK A01 T00640026  RH  077%=      5-min Rain = 0
KVA1 071852Z 03017KT 06/03 A3037 RMK A01 T00640026  RH  077%=      5-min Rain = 0
KVA1 071853Z 03016KT 07/03 A3037 RMK A01 T00650027  RH  077%=      5-min Rain = 0
KVA1 071854Z 04017KT 07/03 A3038 RMK A01 T00650027  RH  077%=      5-min Rain = 0
KVA1 071855Z 04016G22KT 07/03 A3037 RMK A01 T00650027  RH  077%=      5-min Rain = 0
KVA1 071856Z 04017KT 07/03 A3037 RMK A01 T00650027  RH  076%=      5-min Rain = 0
KVA1 071857Z 04015G21KT 07/03 A3037 RMK A01 T00660027  RH  076%=      5-min Rain = 0
KVA1 071858Z 04018KT 07/03 A3037 RMK A01 T00660026  RH  076%=      5-min Rain = 0
KVA1 071859Z 03016KT 07/03 A3037 RMK A01 T00670027  RH  076%=      5-min Rain = 0
KVA1 071900Z 03017KT 07/03 A3037 RMK A01 T00670027  RH  076%=      5-min Rain = 0
KVA1 071901Z 03015KT 07/03 A3037 RMK A01 T00670027  RH  075%=      5-min Rain = 0
KVA1 071902Z 04013G18KT 07/03 A3037 RMK A01 T00670027  RH  076%=      5-min Rain = 0
KVA1 071903Z 03015G21KT 07/03 A3037 RMK A01 T00680029  RH  076%=      5-min Rain = 0
KVA1 071904Z 03013KT 07/03 A3037 RMK A01 T00690029  RH  076%=      5-min Rain = 0
KVA1 071905Z 03017G22KT 07/03 A3037 RMK A01 T00700029  RH  075%=      5-min Rain = 0
KVA1 071906Z 03016KT 07/03 A3037 RMK A01 T00680027  RH  075%=      5-min Rain = 0
KVA1 071907Z 03017KT 07/03 A3038 RMK A01 T00670028  RH  076%=      5-min Rain = 0
KVA1 071908Z 04017KT 07/03 A3038 RMK A01 T00660027  RH  076%=      5-min Rain = 0
KVA1 071909Z 03016G21KT 07/03 A3038 RMK A01 T00650027  RH  077%=      5-min Rain = 0
KVA1 071910Z 03018KT 07/03 A3038 RMK A01 T00650028  RH  077%=      5-min Rain = 0
KVA1 071911Z 03016KT 07/03 A3038 RMK A01 T00650028  RH  077%=      5-min Rain = 0
KVA1 071912Z 03015G20KT 07/03 A3038 RMK A01 T00650028  RH  077%=      5-min Rain = 0
KVA1 071913Z 03017KT 07/03 A3038 RMK A01 T00660028  RH  077%=      5-min Rain = 0
KVA1 071914Z 03014KT 07/03 A3037 RMK A01 T00670029  RH  077%=      5-min Rain = 0
KVA1 071915Z 03016KT 07/03 A3037 RMK A01 T00690029  RH  076%=      5-min Rain = 0
KVA1 071916Z 03013KT 07/03 A3038 RMK A01 T00700029  RH  075%=      5-min Rain = 0
KVA1 071917Z 03015KT 07/03 A3038 RMK A01 T00710029  RH  075%=      5-min Rain = 0
KVA1 071918Z 03017KT 07/03 A3038 RMK A01 T00710028  RH  074%=      5-min Rain = 0
KVA1 071919Z 02014KT 07/03 A3038 RMK A01 T00700027  RH  074%=      5-min Rain = 0
KVA1 071920Z 02013KT 07/03 A3038 RMK A01 T00690028  RH  075%=      5-min Rain = 0
KVA1 071921Z 03016KT 07/03 A3038 RMK A01 T00700028  RH  075%=      5-min Rain = 0
KVA1 071922Z 02015KT 07/03 A3038 RMK A01 T00700028  RH  075%=      5-min Rain = 0
KVA1 071923Z 03013G18KT 07/03 A3038 RMK A01 T00700028  RH  075%=      5-min Rain = 0
KVA1 071924Z 02016G21KT 07/03 A3038 RMK A01 T00700028  RH  075%=      5-min Rain = 0
KVA1 071925Z 03018KT 07/03 A3038 RMK A01 T00700027  RH  074%=      5-min Rain = 0
KVA1 071926Z 03017G22KT 07/03 A3038 RMK A01 T00680027  RH  075%=      5-min Rain = 0
KVA1 071927Z 04016KT 07/03 A3038 RMK A01 T00680027  RH  075%=      5-min Rain = 0
KVA1 071928Z 04017KT 07/03 A3038 RMK A01 T00670026  RH  075%=      5-min Rain = 0
KVA1 071929Z 03015KT 07/03 A3038 RMK A01 T00660027  RH  076%=      5-min Rain = 0
KVA1 071930Z 03017KT 07/03 A3038 RMK A01 T00670028  RH  076%=      5-min Rain = 0
KVA1 071931Z 04015G20KT 07/03 A3038 RMK A01 T00670027  RH  076%=      5-min Rain = 0
KVA1 071932Z 03014G19KT 07/03 A3038 RMK A01 T00670027  RH  076%=      5-min Rain = 0
KVA1 071933Z 02017KT 07/03 A3038 RMK A01 T00670027  RH  076%=      5-min Rain = 0
KVA1 071934Z 04017KT 07/03 A3038 RMK A01 T00670027  RH  075%=      5-min Rain = 0
KVA1 071935Z 03015KT 07/03 A3038 RMK A01 T00650026  RH  076%=      5-min Rain = 0
KVA1 071936Z 03016G21KT 07/03 A3038 RMK A01 T00650026  RH  076%=      5-min Rain = 0
KVA1 071937Z 03012KT 07/03 A3038 RMK A01 T00650026  RH  076%=      5-min Rain = 0
KVA1 071938Z 03010KT 07/03 A3038 RMK A01 T00650026  RH  076%=      5-min Rain = 0
KVA1 071939Z 03014G20KT 07/03 A3037 RMK A01 T00670027  RH  075%=      5-min Rain = 0
KVA1 071940Z 03015G21KT 07/03 A3037 RMK A01 T00670026  RH  075%=      5-min Rain = 0
KVA1 071941Z 03013G18KT 07/03 A3037 RMK A01 T00670026  RH  075%=      5-min Rain = 0
KVA1 071942Z 04013G20KT 07/03 A3037 RMK A01 T00690028  RH  075%=      5-min Rain = 0
KVA1 071943Z 03018KT 07/03 A3037 RMK A01 T00710027  RH  074%=      5-min Rain = 0
KVA1 071944Z 03017KT 07/03 A3037 RMK A01 T00680025  RH  074%=      5-min Rain = 0
KVA1 071945Z 04016G21KT 07/03 A3036 RMK A01 T00660025  RH  075%=      5-min Rain = 0
KVA1 071946Z 03014G20KT 07/03 A3036 RMK A01 T00660026  RH  076%=      5-min Rain = 0
KVA1 071947Z 03017G22KT 07/03 A3036 RMK A01 T00670026  RH  075%=      5-min Rain = 0
KVA1 071948Z 02017G22KT 07/03 A3036 RMK A01 T00660025  RH  075%=      5-min Rain = 0
KVA1 071949Z 02019KT 07/03 A3036 RMK A01 T00660025  RH  076%=      5-min Rain = 0
KVA1 071950Z 04019G24KT 07/03 A3036 RMK A01 T00650025  RH  076%=      5-min Rain = 0
KVA1 071951Z 03018KT 07/03 A3036 RMK A01 T00650025  RH  076%=      5-min Rain = 0
KVA1 071952Z 03018KT 06/03 A3036 RMK A01 T00640025  RH  076%=      5-min Rain = 0
KVA1 071953Z 04016G21KT 06/02 A3036 RMK A01 T00640024  RH  076%=      5-min Rain = 0
KVA1 071954Z 03017G22KT 06/03 A3036 RMK A01 T00640025  RH  076%=      5-min Rain = 0
KVA1 071955Z 04018KT 06/03 A3036 RMK A01 T00640025  RH  076%=      5-min Rain = 0
KVA1 071956Z 03018KT 07/03 A3035 RMK A01 T00650026  RH  076%=      5-min Rain = 0
KVA1 071957Z 03018KT 06/03 A3035 RMK A01 T00640025  RH  076%=      5-min Rain = 0
KVA1 071958Z 03015G20KT 06/03 A3036 RMK A01 T00640025  RH  076%=      5-min Rain = 0
KVA1 071959Z 03016KT 06/03 A3036 RMK A01 T00640026  RH  076%=      5-min Rain = 0
KVA1 072000Z 04017KT 07/03 A3036 RMK A01 T00650026  RH  076%=      5-min Rain = 0
KVA1 072001Z 03014KT 07/03 A3036 RMK A01 T00650027  RH  076%=      5-min Rain = 0
KVA1 072002Z 02012KT 07/03 A3036 RMK A01 T00670028  RH  076%=      5-min Rain = 0
KVA1 072003Z 02016G21KT 07/03 A3037 RMK A01 T00690027  RH  075%=      5-min Rain = 0
KVA1 072004Z 02013KT 07/03 A3036 RMK A01 T00680026  RH  074%=      5-min Rain = 0
KVA1 072005Z 02017KT 07/03 A3036 RMK A01 T00670025  RH  074%=      5-min Rain = 0
KVA1 072006Z 02017G23KT 07/03 A3036 RMK A01 T00660025  RH  075%=      5-min Rain = 0
KVA1 072007Z 03018KT 07/02 A3036 RMK A01 T00650024  RH  075%=      5-min Rain = 0
KVA1 072008Z 03018KT 06/02 A3036 RMK A01 T00630023  RH  075%=      5-min Rain = 0
KVA1 072009Z 03016G21KT 06/02 A3036 RMK A01 T00630024  RH  076%=      5-min Rain = 0
KVA1 072010Z 03014KT 06/02 A3036 RMK A01 T00630024  RH  076%=      5-min Rain = 0
KVA1 072011Z 03016KT 07/03 A3036 RMK A01 T00650025  RH  076%=      5-min Rain = 0
KVA1 072012Z 03017KT 07/02 A3036 RMK A01 T00650024  RH  075%=      5-min Rain = 0
KVA1 072013Z 03020KT 07/02 A3036 RMK A01 T00650023  RH  075%=      5-min Rain = 0
KVA1 072014Z 04017KT 06/02 A3036 RMK A01 T00630023  RH  075%=      5-min Rain = 0
KVA1 072015Z 03016KT 06/02 A3036 RMK A01 T00620023  RH  076%=      5-min Rain = 0
KVA1 072016Z 03016KT 06/02 A3036 RMK A01 T00630024  RH  076%=      5-min Rain = 0
KVA1 072017Z 03014KT 06/02 A3036 RMK A01 T00640024  RH  076%=      5-min Rain = 0
KVA1 072018Z 04014G19KT 06/02 A3036 RMK A01 T00640024  RH  076%=      5-min Rain = 0
KVA1 072019Z 04016KT 07/02 A3036 RMK A01 T00650024  RH  075%=      5-min Rain = 0
KVA1 072020Z 03017KT 07/02 A3036 RMK A01 T00650023  RH  074%=      5-min Rain = 0
KVA1 072021Z 04015KT 06/02 A3036 RMK A01 T00630022  RH  075%=      5-min Rain = 0
KVA1 072022Z 04015KT 06/02 A3036 RMK A01 T00630022  RH  075%=      5-min Rain = 0
KVA1 072023Z 04016G22KT 06/02 A3036 RMK A01 T00630023  RH  075%=      5-min Rain = 0
KVA1 072024Z 03017KT 06/02 A3036 RMK A01 T00620022  RH  075%=      5-min Rain = 0
KVA1 072025Z 03015G21KT 06/02 A3036 RMK A01 T00620023  RH  076%=      5-min Rain = 0
KVA1 072026Z 04013G19KT 06/02 A3036 RMK A01 T00620023  RH  076%=      5-min Rain = 0
KVA1 072027Z 03012KT 06/02 A3036 RMK A01 T00640024  RH  076%=      5-min Rain = 0
KVA1 072028Z 03014G20KT 07/02 A3036 RMK A01 T00650024  RH  075%=      5-min Rain = 0
KVA1 072029Z 03015G20KT 07/02 A3036 RMK A01 T00650024  RH  075%=      5-min Rain = 0
KVA1 072030Z 03015KT 07/02 A3036 RMK A01 T00650024  RH  075%=      5-min Rain = 0
KVA1 072031Z 04015KT 06/02 A3036 RMK A01 T00640023  RH  075%=      5-min Rain = 0
KVA1 072032Z 05014KT 07/02 A3036 RMK A01 T00650024  RH  075%=      5-min Rain = 0
KVA1 072033Z 04014KT 07/02 A3036 RMK A01 T00650024  RH  075%=      5-min Rain = 0
KVA1 072034Z 04014KT 06/02 A3036 RMK A01 T00640024  RH  075%=      5-min Rain = 0
KVA1 072035Z 03016KT 06/02 A3036 RMK A01 T00640023  RH  075%=      5-min Rain = 0
KVA1 072036Z 03014G19KT 06/02 A3036 RMK A01 T00640023  RH  075%=      5-min Rain = 0
KVA1 072037Z 03016KT 06/02 A3036 RMK A01 T00640023  RH  075%=      5-min Rain = 0
KVA1 072038Z 03016KT 06/02 A3036 RMK A01 T00640023  RH  075%=      5-min Rain = 0
KVA1 072039Z 04017KT 06/02 A3036 RMK A01 T00630023  RH  075%=      5-min Rain = 0
KVA1 072040Z 04015KT 06/02 A3036 RMK A01 T00620022  RH  076%=      5-min Rain = 0
KVA1 072041Z 03012KT 06/02 A3036 RMK A01 T00610023  RH  076%=      5-min Rain = 0
KVA1 072042Z 03015KT 06/02 A3036 RMK A01 T00620024  RH  076%=      5-min Rain = 0
KVA1 072043Z 03013KT 06/02 A3036 RMK A01 T00630023  RH  076%=      5-min Rain = 0
KVA1 072044Z 04014G19KT 06/02 A3036 RMK A01 T00630024  RH  076%=      5-min Rain = 0
KVA1 072045Z 03014KT 06/02 A3036 RMK A01 T00640024  RH  076%=      5-min Rain = 0
KVA1 072046Z 03015KT 06/02 A3036 RMK A01 T00630023  RH  076%=      5-min Rain = 0
KVA1 072047Z 02013KT 06/02 A3036 RMK A01 T00630023  RH  076%=      5-min Rain = 0
KVA1 072048Z 03015KT 06/02 A3036 RMK A01 T00630024  RH  076%=      5-min Rain = 0
KVA1 072049Z 03014KT 06/02 A3036 RMK A01 T00630024  RH  076%=      5-min Rain = 0
KVA1 072050Z 03014KT 06/03 A3036 RMK A01 T00630025  RH  077%=      5-min Rain = 0
KVA1 072051Z 03015G20KT 06/02 A3036 RMK A01 T00630024  RH  076%=      5-min Rain = 0
KVA1 072052Z 03015KT 06/02 A3037 RMK A01 T00630023  RH  076%=      5-min Rain = 0
KVA1 072053Z 04016KT 06/02 A3037 RMK A01 T00620022  RH  076%=      5-min Rain = 0
KVA1 072054Z 03016KT 06/02 A3037 RMK A01 T00610022  RH  076%=      5-min Rain = 0
KVA1 072055Z 03014KT 06/02 A3036 RMK A01 T00610022  RH  076%=      5-min Rain = 0
KVA1 072056Z 03013KT 06/02 A3036 RMK A01 T00600022  RH  077%=      5-min Rain = 0
KVA1 072057Z 04016KT 06/02 A3036 RMK A01 T00600023  RH  077%=      5-min Rain = 0
KVA1 072058Z 04016KT 06/02 A3036 RMK A01 T00600023  RH  077%=      5-min Rain = 0
KVA1 072059Z 03015KT 06/02 A3037 RMK A01 T00600024  RH  077%=      5-min Rain = 0
KVA1 072100Z 02013KT 06/02 A3037 RMK A01 T00600024  RH  077%=      5-min Rain = 0
KVA1 072101Z 03016KT 06/02 A3037 RMK A01 T00610024  RH  077%=      5-min Rain = 0
KVA1 072102Z 03015KT 06/02 A3037 RMK A01 T00610024  RH  077%=      5-min Rain = 0
KVA1 072103Z 03016KT 06/02 A3037 RMK A01 T00610023  RH  077%=      5-min Rain = 0
KVA1 072104Z 04016KT 06/02 A3037 RMK A01 T00610024  RH  077%=      5-min Rain = 0
KVA1 072105Z 04015KT 06/02 A3036 RMK A01 T00610024  RH  077%=      5-min Rain = 0
KVA1 072106Z 03013G19KT 06/03 A3037 RMK A01 T00610025  RH  077%=      5-min Rain = 0
KVA1 072107Z 04011G16KT 06/03 A3037 RMK A01 T00620025  RH  077%=      5-min Rain = 0
KVA1 072108Z 03012G17KT 06/03 A3037 RMK A01 T00620025  RH  077%=      5-min Rain = 0
KVA1 072109Z 04016G21KT 06/03 A3036 RMK A01 T00620025  RH  077%=      5-min Rain = 0
KVA1 072110Z 03014KT 06/02 A3036 RMK A01 T00620024  RH  077%=      5-min Rain = 0
KVA1 072111Z 03016G21KT 06/03 A3036 RMK A01 T00620025  RH  077%=      5-min Rain = 0
KVA1 072112Z 02018KT 06/02 A3037 RMK A01 T00620024  RH  077%=      5-min Rain = 0
KVA1 072113Z 03014KT 06/02 A3037 RMK A01 T00610024  RH  077%=      5-min Rain = 0
KVA1 072114Z 02013KT 06/03 A3037 RMK A01 T00610025  RH  078%=      5-min Rain = 0
KVA1 072115Z 03014G19KT 06/03 A3037 RMK A01 T00610025  RH  078%=      5-min Rain = 0
KVA1 072116Z 04017KT 06/03 A3037 RMK A01 T00610025  RH  077%=      5-min Rain = 0
KVA1 072117Z 03015KT 06/03 A3037 RMK A01 T00600025  RH  078%=      5-min Rain = 0
KVA1 072118Z 03014G19KT 06/03 A3037 RMK A01 T00600025  RH  078%=      5-min Rain = 0
KVA1 072119Z 03018KT 06/02 A3037 RMK A01 T00600024  RH  078%=      5-min Rain = 0
KVA1 072120Z 03015KT 06/02 A3037 RMK A01 T00590024  RH  078%=      5-min Rain = 0
KVA1 072121Z 03015KT 06/02 A3037 RMK A01 T00590024  RH  078%=      5-min Rain = 0
KVA1 072122Z 04014G19KT 06/02 A3037 RMK A01 T00590024  RH  078%=      5-min Rain = 0
KVA1 072123Z 04015G20KT 06/02 A3036 RMK A01 T00590024  RH  078%=      5-min Rain = 0
KVA1 072124Z 04018KT 06/02 A3037 RMK A01 T00590024  RH  078%=      5-min Rain = 0
KVA1 072125Z 03018KT 06/02 A3037 RMK A01 T00580024  RH  078%=      5-min Rain = 0
KVA1 072126Z 03017KT 06/02 A3037 RMK A01 T00580024  RH  079%=      5-min Rain = 0
KVA1 072127Z 03016KT 06/02 A3037 RMK A01 T00570023  RH  079%=      5-min Rain = 0
KVA1 072128Z 04014KT 06/02 A3037 RMK A01 T00570023  RH  079%=      5-min Rain = 0
KVA1 072129Z 03015KT 06/02 A3037 RMK A01 T00570023  RH  079%=      5-min Rain = 0
KVA1 072130Z 03015KT 06/02 A3037 RMK A01 T00570023  RH  079%=      5-min Rain = 0
KVA1 072131Z 04016KT 06/02 A3037 RMK A01 T00570023  RH  079%=      5-min Rain = 0
KVA1 072132Z 03016KT 06/02 A3037 RMK A01 T00570024  RH  079%=      5-min Rain = 0
KVA1 072133Z 03013KT 06/02 A3036 RMK A01 T00560023  RH  079%=      5-min Rain = 0
KVA1 072134Z 03014KT 06/02 A3036 RMK A01 T00560024  RH  080%=      5-min Rain = 0
KVA1 072135Z 03013KT 06/02 A3036 RMK A01 T00570024  RH  079%=      5-min Rain = 0
KVA1 072136Z 03012KT 06/02 A3036 RMK A01 T00580024  RH  079%=      5-min Rain = 0
KVA1 072137Z 03014KT 06/02 A3037 RMK A01 T00590024  RH  078%=      5-min Rain = 0
KVA1 072138Z 03014KT 06/02 A3037 RMK A01 T00590023  RH  078%=      5-min Rain = 0
KVA1 072139Z 03015KT 06/02 A3037 RMK A01 T00580023  RH  078%=      5-min Rain = 0
KVA1 072140Z 03014KT 06/02 A3037 RMK A01 T00580023  RH  078%=      5-min Rain = 0
KVA1 072141Z 04014KT 06/02 A3037 RMK A01 T00590023  RH  078%=      5-min Rain = 0
KVA1 072142Z 03015KT 06/02 A3037 RMK A01 T00590023  RH  078%=      5-min Rain = 0
KVA1 072143Z 04014KT 06/02 A3037 RMK A01 T00580023  RH  078%=      5-min Rain = 0
KVA1 072144Z 03014KT 06/02 A3037 RMK A01 T00580023  RH  078%=      5-min Rain = 0
KVA1 072145Z 02012KT 06/02 A3037 RMK A01 T00580023  RH  078%=      5-min Rain = 0
KVA1 072146Z 03015KT 06/02 A3037 RMK A01 T00580023  RH  078%=      5-min Rain = 0
KVA1 072147Z 03014KT 06/02 A3037 RMK A01 T00570023  RH  078%=      5-min Rain = 0
KVA1 072148Z 03014KT 06/02 A3037 RMK A01 T00570023  RH  079%=      5-min Rain = 0
KVA1 072149Z 04016KT 06/02 A3037 RMK A01 T00570023  RH  079%=      5-min Rain = 0
KVA1 072150Z 04014KT 06/02 A3037 RMK A01 T00560022  RH  079%=      5-min Rain = 0
KVA1 072151Z 03015KT 06/02 A3037 RMK A01 T00560023  RH  079%=      5-min Rain = 0
KVA1 072152Z 04016KT 06/02 A3037 RMK A01 T00560023  RH  079%=      5-min Rain = 0
KVA1 072153Z 04016KT 06/02 A3037 RMK A01 T00560023  RH  080%=      5-min Rain = 0
KVA1 072154Z 04014KT 06/02 A3037 RMK A01 T00550023  RH  080%=      5-min Rain = 0
KVA1 072155Z 03015KT 05/02 A3037 RMK A01 T00540023  RH  080%=      5-min Rain = 0
KVA1 072156Z 03012KT 05/02 A3037 RMK A01 T00540023  RH  080%=      5-min Rain = 0
KVA1 072157Z 04015KT 06/02 A3036 RMK A01 T00550023  RH  080%=      5-min Rain = 0
KVA1 072158Z 04015KT 06/02 A3036 RMK A01 T00550023  RH  080%=      5-min Rain = 0
KVA1 072159Z 03014G20KT 06/02 A3037 RMK A01 T00550023  RH  080%=      5-min Rain = 0
KVA1 072200Z 03014KT 06/02 A3036 RMK A01 T00550023  RH  079%=      5-min Rain = 0
KVA1 072201Z 03012KT 06/02 A3036 RMK A01 T00550023  RH  079%=      5-min Rain = 0
KVA1 072202Z 03015KT 06/02 A3036 RMK A01 T00570023  RH  079%=      5-min Rain = 0
KVA1 072203Z 04016G21KT 06/02 A3036 RMK A01 T00560022  RH  078%=      5-min Rain = 0
KVA1 072204Z 04016KT 06/02 A3036 RMK A01 T00570022  RH  078%=      5-min Rain = 0
KVA1 072205Z 04014KT 06/02 A3036 RMK A01 T00570022  RH  079%=      5-min Rain = 0
KVA1 072206Z 03014KT 06/02 A3036 RMK A01 T00560022  RH  079%=      5-min Rain = 0
KVA1 072207Z 03013KT 06/02 A3036 RMK A01 T00570022  RH  079%=      5-min Rain = 0
KVA1 072208Z 03017KT 06/02 A3037 RMK A01 T00570022  RH  078%=      5-min Rain = 0
KVA1 072209Z 03016G21KT 06/02 A3037 RMK A01 T00570022  RH  078%=      5-min Rain = 0
KVA1 072210Z 03015KT 06/02 A3037 RMK A01 T00560022  RH  079%=      5-min Rain = 0
KVA1 072211Z 03012G17KT 06/02 A3037 RMK A01 T00560023  RH  079%=      5-min Rain = 0
KVA1 072212Z 03015G20KT 06/02 A3037 RMK A01 T00560023  RH  079%=      5-min Rain = 0
KVA1 072213Z 04016KT 06/02 A3037 RMK A01 T00560023  RH  079%=      5-min Rain = 0
KVA1 072214Z 04014KT 06/02 A3037 RMK A01 T00550023  RH  080%=      5-min Rain = 0
KVA1 072215Z 04015KT 06/02 A3037 RMK A01 T00550023  RH  080%=      5-min Rain = 0
KVA1 072216Z 03014KT 06/02 A3037 RMK A01 T00550023  RH  080%=      5-min Rain = 0
KVA1 072217Z 03015G20KT 06/02 A3037 RMK A01 T00550023  RH  080%=      5-min Rain = 0
KVA1 072218Z 03013KT 06/02 A3037 RMK A01 T00550023  RH  080%=      5-min Rain = 0
KVA1 072219Z 03016KT 05/02 A3037 RMK A01 T00540023  RH  080%=      5-min Rain = 0
KVA1 072220Z 03014G19KT 05/02 A3037 RMK A01 T00540023  RH  081%=      5-min Rain = 0
KVA1 072221Z 03017KT 05/02 A3037 RMK A01 T00540023  RH  081%=      5-min Rain = 0
KVA1 072222Z 03015KT 05/02 A3037 RMK A01 T00530023  RH  081%=      5-min Rain = 0
KVA1 072223Z 02015KT 05/02 A3037 RMK A01 T00530023  RH  081%=      5-min Rain = 0
KVA1 072224Z 03011KT 05/02 A3037 RMK A01 T00540023  RH  081%=      5-min Rain = 0
KVA1 072225Z 03015KT 05/02 A3037 RMK A01 T00530023  RH  081%=      5-min Rain = 0
KVA1 072226Z 03012KT 05/02 A3037 RMK A01 T00530022  RH  081%=      5-min Rain = 0
KVA1 072227Z 03013KT 05/02 A3037 RMK A01 T00540023  RH  081%=      5-min Rain = 0
KVA1 072228Z 02010KT 05/02 A3037 RMK A01 T00540023  RH  081%=      5-min Rain = 0
KVA1 072229Z 03013G18KT 05/02 A3037 RMK A01 T00540023  RH  080%=      5-min Rain = 0
KVA1 072230Z 03013KT 06/02 A3037 RMK A01 T00550023  RH  080%=      5-min Rain = 0
KVA1 072231Z 03013KT 06/02 A3037 RMK A01 T00550023  RH  080%=      5-min Rain = 0
KVA1 072232Z 03013G18KT 06/02 A3037 RMK A01 T00550023  RH  080%=      5-min Rain = 0
KVA1 072233Z 03015KT 06/02 A3037 RMK A01 T00550022  RH  080%=      5-min Rain = 0
KVA1 072234Z 03014KT 05/02 A3037 RMK A01 T00540022  RH  080%=      5-min Rain = 0
KVA1 072235Z 03014KT 05/02 A3037 RMK A01 T00540022  RH  080%=      5-min Rain = 0
KVA1 072236Z 04015KT 05/02 A3037 RMK A01 T00540022  RH  080%=      5-min Rain = 0
KVA1 072237Z 04013KT 05/02 A3038 RMK A01 T00530022  RH  080%=      5-min Rain = 0
KVA1 072238Z 04015KT 05/02 A3038 RMK A01 T00530022  RH  080%=      5-min Rain = 0
KVA1 072239Z 04013KT 05/02 A3038 RMK A01 T00540022  RH  080%=      5-min Rain = 0
KVA1 072240Z 04014KT 05/02 A3038 RMK A01 T00540021  RH  080%=      5-min Rain = 0
KVA1 072241Z 04011KT 05/02 A3038 RMK A01 T00540022  RH  080%=      5-min Rain = 0
KVA1 072242Z 04011KT 06/02 A3038 RMK A01 T00550022  RH  080%=      5-min Rain = 0
KVA1 072243Z 03011G17KT 06/02 A3038 RMK A01 T00550022  RH  079%=      5-min Rain = 0
KVA1 072244Z 04014KT 06/02 A3038 RMK A01 T00550022  RH  079%=      5-min Rain = 0
KVA1 072245Z 04013G18KT 06/02 A3038 RMK A01 T00550022  RH  079%=      5-min Rain = 0
KVA1 072246Z 04017KT 06/02 A3038 RMK A01 T00550022  RH  079%=      5-min Rain = 0
KVA1 072247Z 04015KT 05/02 A3038 RMK A01 T00540021  RH  079%=      5-min Rain = 0
KVA1 072248Z 04016KT 05/02 A3038 RMK A01 T00530021  RH  080%=      5-min Rain = 0
KVA1 072249Z 04016KT 05/02 A3038 RMK A01 T00520021  RH  080%=      5-min Rain = 0
KVA1 072250Z 04015KT 05/02 A3038 RMK A01 T00520021  RH  080%=      5-min Rain = 0
KVA1 072251Z 04013KT 05/02 A3038 RMK A01 T00520021  RH  081%=      5-min Rain = 0
KVA1 072252Z 05016G21KT 05/02 A3038 RMK A01 T00520021  RH  080%=      5-min Rain = 0
KVA1 072253Z 04016KT 05/02 A3038 RMK A01 T00520021  RH  080%=      5-min Rain = 0
KVA1 072254Z 04014KT 05/02 A3038 RMK A01 T00520021  RH  081%=      5-min Rain = 0
KVA1 072255Z 03017KT 05/02 A3038 RMK A01 T00510021  RH  081%=      5-min Rain = 0
KVA1 072256Z 04013KT 05/02 A3038 RMK A01 T00520021  RH  081%=      5-min Rain = 0
KVA1 072257Z 04011G17KT 05/02 A3038 RMK A01 T00510021  RH  081%=      5-min Rain = 0
KVA1 072258Z 04016KT 05/02 A3038 RMK A01 T00520022  RH  081%=      5-min Rain = 0
KVA1 072259Z 04012KT 05/02 A3038 RMK A01 T00520022  RH  081%=      5-min Rain = 0
KVA1 072300Z 03016KT 05/02 A3038 RMK A01 T00520022  RH  081%=      5-min Rain = 0
KVA1 072301Z 04016KT 05/02 A3038 RMK A01 T00520021  RH  081%=      5-min Rain = 0
KVA1 072302Z 04015KT 05/02 A3038 RMK A01 T00510021  RH  081%=      5-min Rain = 0
KVA1 072303Z 03015KT 05/02 A3038 RMK A01 T00510022  RH  081%=      5-min Rain = 0
KVA1 072304Z 03013KT 05/02 A3038 RMK A01 T00510021  RH  081%=      5-min Rain = 0
KVA1 072305Z 04016KT 05/02 A3038 RMK A01 T00500021  RH  081%=      5-min Rain = 0
KVA1 072306Z 03014KT 05/02 A3038 RMK A01 T00500021  RH  081%=      5-min Rain = 0
KVA1 072307Z 03012KT 05/02 A3038 RMK A01 T00500021  RH  082%=      5-min Rain = 0
KVA1 072308Z 03014KT 05/02 A3038 RMK A01 T00500021  RH  082%=      5-min Rain = 0
KVA1 072309Z 03014KT 05/02 A3038 RMK A01 T00500021  RH  082%=      5-min Rain = 0
KVA1 072310Z 04016KT 05/02 A3039 RMK A01 T00500021  RH  082%=      5-min Rain = 0
KVA1 072311Z 04014KT 05/02 A3039 RMK A01 T00490021  RH  082%=      5-min Rain = 0
KVA1 072312Z 03013KT 05/02 A3039 RMK A01 T00490021  RH  082%=      5-min Rain = 0
KVA1 072313Z 04014KT 05/02 A3039 RMK A01 T00490021  RH  082%=      5-min Rain = 0
KVA1 072314Z 05014KT 05/02 A3039 RMK A01 T00490020  RH  082%=      5-min Rain = 0
KVA1 072315Z 04012KT 05/02 A3038 RMK A01 T00490020  RH  082%=      5-min Rain = 0
KVA1 072316Z 04013KT 05/02 A3038 RMK A01 T00490020  RH  082%=      5-min Rain = 0
KVA1 072317Z 04011KT 05/02 A3039 RMK A01 T00490020  RH  082%=      5-min Rain = 0
KVA1 072318Z 03013KT 05/02 A3039 RMK A01 T00480020  RH  082%=      5-min Rain = 0
KVA1 072319Z 04012KT 05/02 A3039 RMK A01 T00490020  RH  082%=      5-min Rain = 0
KVA1 072320Z 04016KT 05/02 A3038 RMK A01 T00490020  RH  082%=      5-min Rain = 0
KVA1 072321Z 03015KT 05/02 A3039 RMK A01 T00480020  RH  082%=      5-min Rain = 0
KVA1 072322Z 04014KT 05/02 A3038 RMK A01 T00470020  RH  082%=      5-min Rain = 0
KVA1 072323Z 03011KT 05/02 A3038 RMK A01 T00470020  RH  083%=      5-min Rain = 0
KVA1 072324Z 03012KT 05/02 A3038 RMK A01 T00480020  RH  082%=      5-min Rain = 0
KVA1 072325Z 03013KT 05/02 A3038 RMK A01 T00480020  RH  082%=      5-min Rain = 0
KVA1 072326Z 04013KT 05/02 A3039 RMK A01 T00480020  RH  082%=      5-min Rain = 0
KVA1 072327Z 04011KT 05/02 A3039 RMK A01 T00480021  RH  083%=      5-min Rain = 0
KVA1 072328Z 04015KT 05/02 A3039 RMK A01 T00480021  RH  083%=      5-min Rain = 0
KVA1 072329Z 04013G18KT 05/02 A3039 RMK A01 T00480021  RH  083%=      5-min Rain = 0
KVA1 072330Z 04015KT 05/02 A3039 RMK A01 T00470021  RH  083%=      5-min Rain = 0
KVA1 072331Z 04011G16KT 05/02 A3039 RMK A01 T00480021  RH  083%=      5-min Rain = 0
KVA1 072332Z 03013KT 05/02 A3039 RMK A01 T00480022  RH  083%=      5-min Rain = 0
KVA1 072333Z 04013KT 05/02 A3039 RMK A01 T00470021  RH  083%=      5-min Rain = 0
KVA1 072334Z 04013KT 05/02 A3039 RMK A01 T00470021  RH  083%=      5-min Rain = 0
KVA1 072335Z 04014KT 05/02 A3039 RMK A01 T00470021  RH  083%=      5-min Rain = 0
KVA1 072336Z 03013KT 05/02 A3039 RMK A01 T00470021  RH  083%=      5-min Rain = 0
KVA1 072337Z 03012KT 05/02 A3039 RMK A01 T00470021  RH  083%=      5-min Rain = 0
KVA1 072338Z 03014KT 05/02 A3039 RMK A01 T00480021  RH  083%=      5-min Rain = 0
KVA1 072339Z 03013KT 05/02 A304 RMK A01 T00470021  RH  083%=      5-min Rain = 0
KVA1 072340Z 03012G17KT 05/02 A304 RMK A01 T00470021  RH  083%=      5-min Rain = 0
KVA1 072341Z 03013KT 05/02 A304 RMK A01 T00470021  RH  083%=      5-min Rain = 0
KVA1 072342Z 03016KT 05/02 A304 RMK A01 T00470021  RH  083%=      5-min Rain = 0
KVA1 072343Z 03013G19KT 05/02 A304 RMK A01 T00460021  RH  083%=      5-min Rain = 0
KVA1 072344Z 04014KT 05/02 A304 RMK A01 T00460021  RH  084%=      5-min Rain = 0
KVA1 072345Z 04013KT 05/02 A304 RMK A01 T00460021  RH  084%=      5-min Rain = 0
KVA1 072346Z 03013KT 05/02 A304 RMK A01 T00460021  RH  084%=      5-min Rain = 0
KVA1 072347Z 03014KT 05/02 A304 RMK A01 T00450021  RH  084%=      5-min Rain = 0
KVA1 072348Z 03013KT 05/02 A304 RMK A01 T00450021  RH  084%=      5-min Rain = 0
KVA1 072349Z 04014KT 05/02 A304 RMK A01 T00450021  RH  084%=      5-min Rain = 0
KVA1 072350Z 04010KT 05/02 A304 RMK A01 T00450021  RH  084%=      5-min Rain = 0
KVA1 072351Z 05012KT 05/02 A304 RMK A01 T00450021  RH  084%=      5-min Rain = 0
KVA1 072352Z 05012KT 05/02 A304 RMK A01 T00460021  RH  084%=      5-min Rain = 0
KVA1 072353Z 05011KT 05/02 A304 RMK A01 T00460021  RH  084%=      5-min Rain = 0
KVA1 072354Z 05013KT 05/02 A3039 RMK A01 T00460021  RH  084%=      5-min Rain = 0
KVA1 072355Z 05014KT 05/02 A3039 RMK A01 T00450020  RH  084%=      5-min Rain = 0
KVA1 072356Z 05011KT 05/02 A304 RMK A01 T00450021  RH  084%=      5-min Rain = 0
KVA1 072357Z 05009G14KT 05/02 A304 RMK A01 T00450021  RH  084%=      5-min Rain = 0
KVA1 072358Z 05015KT 05/02 A304 RMK A01 T00450020  RH  084%=      5-min Rain = 0
KVA1 072359Z 04014KT 05/02 A304 RMK A01 T00450020  RH  084%=      5-min Rain = 0
KVA1 080000Z 04015KT 05/02 A304 RMK A01 T00450020  RH  084%=      5-min Rain = 0
KVA1 080001Z 04014KT 04/02 A304 RMK A01 T00440020  RH  084%=      5-min Rain = 0
KVA1 080002Z 04013G18KT 05/02 A304 RMK A01 T00450020  RH  084%=      5-min Rain = 0
KVA1 080003Z 04015KT 05/02 A304 RMK A01 T00450020  RH  084%=      5-min Rain = 0
KVA1 080004Z 04014KT 04/02 A304 RMK A01 T00440020  RH  084%=      5-min Rain = 0
KVA1 080005Z 04013KT 04/02 A304 RMK A01 T00440020  RH  084%=      5-min Rain = 0
KVA1 080006Z 04012KT 04/02 A304 RMK A01 T00440020  RH  084%=      5-min Rain = 0
KVA1 080007Z 04015KT 04/02 A304 RMK A01 T00440019  RH  084%=      5-min Rain = 0
KVA1 080008Z 05012KT 04/02 A304 RMK A01 T00440019  RH  084%=      5-min Rain = 0
KVA1 080009Z 04013KT 04/02 A304 RMK A01 T00440020  RH  084%=      5-min Rain = 0
KVA1 080010Z 05014KT 04/02 A304 RMK A01 T00440020  RH  084%=      5-min Rain = 0
KVA1 080011Z 04012KT 04/02 A304 RMK A01 T00440020  RH  084%=      5-min Rain = 0
KVA1 080012Z 04012KT 04/02 A304 RMK A01 T00440020  RH  084%=      5-min Rain = 0
KVA1 080013Z 04014KT 04/02 A304 RMK A01 T00440020  RH  084%=      5-min Rain = 0
KVA1 080014Z 04015KT 04/02 A304 RMK A01 T00430019  RH  084%=      5-min Rain = 0
KVA1 080015Z 04014KT 04/02 A304 RMK A01 T00430019  RH  084%=      5-min Rain = 0
KVA1 080016Z 04013KT 04/02 A304 RMK A01 T00430019  RH  085%=      5-min Rain = 0
KVA1 080017Z 04014KT 04/02 A304 RMK A01 T00430019  RH  085%=      5-min Rain = 0
KVA1 080018Z 04013KT 04/02 A304 RMK A01 T00430019  RH  084%=      5-min Rain = 0
KVA1 080019Z 04012KT 04/02 A304 RMK A01 T00430019  RH  084%=      5-min Rain = 0
KVA1 080020Z 04013KT 04/02 A304 RMK A01 T00430019  RH  084%=      5-min Rain = 0
KVA1 080021Z 04014KT 04/02 A304 RMK A01 T00430019  RH  084%=      5-min Rain = 0
KVA1 080022Z 04014KT 04/02 A3039 RMK A01 T00430019  RH  084%=      5-min Rain = 0
KVA1 080023Z 03014KT 04/02 A3039 RMK A01 T00430019  RH  084%=      5-min Rain = 0
KVA1 080024Z 04016KT 04/02 A3039 RMK A01 T00430019  RH  085%=      5-min Rain = 0
KVA1 080025Z 04014KT 04/02 A3039 RMK A01 T00420019  RH  085%=      5-min Rain = 0
KVA1 080026Z 04014KT 04/02 A3039 RMK A01 T00420019  RH  085%=      5-min Rain = 0
KVA1 080027Z 04013KT 04/02 A3039 RMK A01 T00420019  RH  085%=      5-min Rain = 0
KVA1 080028Z 04012KT 04/02 A3039 RMK A01 T00420019  RH  085%=      5-min Rain = 0
KVA1 080029Z 03009KT 04/02 A304 RMK A01 T00420019  RH  085%=      5-min Rain = 0
KVA1 080030Z 04010G15KT 04/02 A304 RMK A01 T00420019  RH  085%=      5-min Rain = 0
KVA1 080031Z 03012G18KT 04/02 A304 RMK A01 T00430020  RH  085%=      5-min Rain = 0
KVA1 080032Z 03015KT 04/02 A304 RMK A01 T00430019  RH  085%=      5-min Rain = 0
KVA1 080033Z 04015KT 04/02 A304 RMK A01 T00420019  RH  085%=      5-min Rain = 0
KVA1 080034Z 04015KT 04/02 A304 RMK A01 T00420019  RH  085%=      5-min Rain = 0
KVA1 080035Z 03012G18KT 04/02 A304 RMK A01 T00420019  RH  085%=      5-min Rain = 0
KVA1 080036Z 03011G16KT 04/02 A304 RMK A01 T00420019  RH  085%=      5-min Rain = 0
KVA1 080037Z 03014KT 04/02 A304 RMK A01 T00420020  RH  085%=      5-min Rain = 0
KVA1 080038Z 03014KT 04/02 A304 RMK A01 T00420020  RH  085%=      5-min Rain = 0
KVA1 080039Z 03015KT 04/02 A304 RMK A01 T00420020  RH  085%=      5-min Rain = 0
KVA1 080040Z 04014KT 04/02 A304 RMK A01 T00420019  RH  085%=      5-min Rain = 0
KVA1 080041Z 03015KT 04/02 A304 RMK A01 T00420019  RH  085%=      5-min Rain = 0
KVA1 080042Z 03014KT 04/02 A304 RMK A01 T00410019  RH  085%=      5-min Rain = 0
KVA1 080043Z 03014KT 04/02 A304 RMK A01 T00420019  RH  085%=      5-min Rain = 0
KVA1 080044Z 04015KT 04/02 A304 RMK A01 T00410019  RH  085%=      5-min Rain = 0
KVA1 080045Z 03014KT 04/02 A304 RMK A01 T00420019  RH  085%=      5-min Rain = 0
KVA1 080046Z 04014KT 04/02 A304 RMK A01 T00410019  RH  085%=      5-min Rain = 0
KVA1 080047Z 04013KT 04/02 A304 RMK A01 T00410019  RH  085%=      5-min Rain = 0
KVA1 080048Z 04011KT 04/02 A304 RMK A01 T00410019  RH  085%=      5-min Rain = 0
KVA1 080049Z 04010KT 04/02 A304 RMK A01 T00410019  RH  085%=      5-min Rain = 0
KVA1 080050Z 03009G14KT 04/02 A304 RMK A01 T00410019  RH  085%=      5-min Rain = 0
KVA1 080051Z 03014KT 04/02 A304 RMK A01 T00410019  RH  085%=      5-min Rain = 0
KVA1 080052Z 04013KT 04/02 A304 RMK A01 T00410019  RH  085%=      5-min Rain = 0
KVA1 080053Z 04013KT 04/02 A304 RMK A01 T00410019  RH  085%=      5-min Rain = 0
KVA1 080054Z 04013KT 04/02 A304 RMK A01 T00410019  RH  086%=      5-min Rain = 0
KVA1 080055Z 03013KT 04/02 A304 RMK A01 T00410019  RH  086%=      5-min Rain = 0
KVA1 080056Z 03012KT 04/02 A3041 RMK A01 T00410019  RH  086%=      5-min Rain = 0
KVA1 080057Z 04011G16KT 04/02 A3041 RMK A01 T00400019  RH  086%=      5-min Rain = 0
KVA1 080058Z 04015KT 04/02 A3041 RMK A01 T00410019  RH  086%=      5-min Rain = 0
KVA1 080059Z 04013KT 04/02 A3041 RMK A01 T00410019  RH  085%=      5-min Rain = 0
KVA1 080100Z 03013KT 04/02 A3041 RMK A01 T00400018  RH  085%=      5-min Rain = 0
KVA1 080101Z 03011KT 04/02 A3041 RMK A01 T00400018  RH  085%=      5-min Rain = 0
KVA1 080102Z 02011KT 04/02 A3041 RMK A01 T00400018  RH  086%=      5-min Rain = 0
KVA1 080103Z 03011KT 04/02 A3041 RMK A01 T00400018  RH  086%=      5-min Rain = 0
KVA1 080104Z 03013KT 04/02 A3041 RMK A01 T00400018  RH  086%=      5-min Rain = 0
KVA1 080105Z 03013KT 04/02 A3041 RMK A01 T00400018  RH  086%=      5-min Rain = 0
KVA1 080106Z 04012KT 04/02 A3041 RMK A01 T00400018  RH  086%=      5-min Rain = 0
KVA1 080107Z 03012KT 04/02 A3041 RMK A01 T00400018  RH  086%=      5-min Rain = 0
KVA1 080108Z 03009KT 04/02 A3041 RMK A01 T00390018  RH  086%=      5-min Rain = 0
KVA1 080109Z 03009KT 04/02 A3041 RMK A01 T00400019  RH  086%=      5-min Rain = 0
KVA1 080110Z 03010KT 04/02 A3041 RMK A01 T00410019  RH  086%=      5-min Rain = 0
KVA1 080111Z 03011KT 04/02 A3041 RMK A01 T00410019  RH  086%=      5-min Rain = 0
KVA1 080112Z 03010KT 04/02 A3041 RMK A01 T00410019  RH  086%=      5-min Rain = 0
KVA1 080113Z 03012KT 04/02 A3041 RMK A01 T00410019  RH  086%=      5-min Rain = 0
KVA1 080114Z 03010KT 04/02 A3041 RMK A01 T00400019  RH  086%=      5-min Rain = 0
KVA1 080115Z 03012KT 04/02 A3041 RMK A01 T00410020  RH  086%=      5-min Rain = 0
KVA1 080116Z 03011KT 04/02 A3041 RMK A01 T00410020  RH  086%=      5-min Rain = 0
KVA1 080117Z 03012KT 04/02 A3042 RMK A01 T00400020  RH  086%=      5-min Rain = 0
KVA1 080118Z 03012KT 04/02 A3042 RMK A01 T00400019  RH  086%=      5-min Rain = 0
KVA1 080119Z 02010KT 04/02 A3042 RMK A01 T00400020  RH  087%=      5-min Rain = 0
KVA1 080120Z 03010KT 04/02 A3042 RMK A01 T00400020  RH  087%=      5-min Rain = 0
KVA1 080121Z 03010KT 04/02 A3042 RMK A01 T00400020  RH  087%=      5-min Rain = 0
KVA1 080122Z 04012KT 04/02 A3042 RMK A01 T00400019  RH  086%=      5-min Rain = 0
KVA1 080123Z 04011KT 04/02 A3041 RMK A01 T00400019  RH  086%=      5-min Rain = 0
KVA1 080124Z 03012KT 04/02 A3041 RMK A01 T00400019  RH  086%=      5-min Rain = 0
KVA1 080125Z 03011KT 04/02 A3042 RMK A01 T00400019  RH  086%=      5-min Rain = 0
KVA1 080126Z 04012KT 04/02 A3042 RMK A01 T00400019  RH  086%=      5-min Rain = 0
KVA1 080127Z 03013KT 04/02 A3042 RMK A01 T00400019  RH  086%=      5-min Rain = 0
KVA1 080128Z 03015KT 04/02 A3042 RMK A01 T00390019  RH  086%=      5-min Rain = 0
KVA1 080129Z 03013KT 04/02 A3042 RMK A01 T00390019  RH  087%=      5-min Rain = 0
KVA1 080130Z 02014KT 04/02 A3042 RMK A01 T00390019  RH  087%=      5-min Rain = 0
KVA1 080131Z 03014KT 04/02 A3042 RMK A01 T00390019  RH  087%=      5-min Rain = 0
KVA1 080132Z 03014KT 04/02 A3042 RMK A01 T00390019  RH  087%=      5-min Rain = 0
KVA1 080133Z 03014KT 04/02 A3042 RMK A01 T00390019  RH  087%=      5-min Rain = 0
KVA1 080134Z 03014KT 04/02 A3042 RMK A01 T00390019  RH  087%=      5-min Rain = 0
KVA1 080135Z 03012KT 04/02 A3042 RMK A01 T00390019  RH  087%=      5-min Rain = 0
KVA1 080136Z 03011KT 04/02 A3042 RMK A01 T00390019  RH  087%=      5-min Rain = 0
KVA1 080137Z 03011KT 04/02 A3042 RMK A01 T00390019  RH  087%=      5-min Rain = 0
KVA1 080138Z 03013KT 04/02 A3042 RMK A01 T00390019  RH  087%=      5-min Rain = 0
KVA1 080139Z 03012G17KT 04/02 A3042 RMK A01 T00390019  RH  087%=      5-min Rain = 0
KVA1 080140Z 03012KT 04/02 A3042 RMK A01 T00390019  RH  087%=      5-min Rain = 0
KVA1 080141Z 03011KT 04/02 A3042 RMK A01 T00390019  RH  087%=      5-min Rain = 0
KVA1 080142Z 04012KT 04/02 A3042 RMK A01 T00390019  RH  087%=      5-min Rain = 0
KVA1 080143Z 04014KT 04/02 A3042 RMK A01 T00390018  RH  087%=      5-min Rain = 0
KVA1 080144Z 04013KT 04/02 A3042 RMK A01 T00390018  RH  086%=      5-min Rain = 0
KVA1 080145Z 03012KT 04/02 A3042 RMK A01 T00390018  RH  087%=      5-min Rain = 0
KVA1 080146Z 03011KT 04/02 A3042 RMK A01 T00390019  RH  087%=      5-min Rain = 0
KVA1 080147Z 04011G17KT 04/02 A3041 RMK A01 T00390018  RH  087%=      5-min Rain = 0
KVA1 080148Z 03013KT 04/02 A3041 RMK A01 T00390019  RH  087%=      5-min Rain = 0
KVA1 080149Z 03012KT 04/02 A3041 RMK A01 T00390018  RH  087%=      5-min Rain = 0
KVA1 080150Z 03012KT 04/02 A3042 RMK A01 T00390019  RH  087%=      5-min Rain = 0
KVA1 080151Z 03013KT 04/02 A3042 RMK A01 T00380018  RH  087%=      5-min Rain = 0
KVA1 080152Z 04015KT 04/02 A3042 RMK A01 T00380018  RH  087%=      5-min Rain = 0
KVA1 080153Z 04012KT 04/02 A3042 RMK A01 T00380018  RH  087%=      5-min Rain = 0
KVA1 080154Z 04013KT 04/02 A3042 RMK A01 T00380018  RH  087%=      5-min Rain = 0
KVA1 080155Z 03013KT 04/02 A3042 RMK A01 T00380018  RH  087%=      5-min Rain = 0
KVA1 080156Z 03010G15KT 04/02 A3042 RMK A01 T00370018  RH  087%=      5-min Rain = 0
KVA1 080157Z 03011G16KT 04/02 A3042 RMK A01 T00370018  RH  087%=      5-min Rain = 0
KVA1 080158Z 03014KT 04/02 A3042 RMK A01 T00370017  RH  087%=      5-min Rain = 0
KVA1 080159Z 03014KT 04/02 A3042 RMK A01 T00370017  RH  087%=      5-min Rain = 0
KVA1 080200Z 03013KT 04/02 A3042 RMK A01 T00370017  RH  087%=      5-min Rain = 0
KVA1 080201Z 04011KT 04/02 A3042 RMK A01 T00370017  RH  087%=      5-min Rain = 0
KVA1 080202Z 03009KT 04/02 A3042 RMK A01 T00370018  RH  087%=      5-min Rain = 0
KVA1 080203Z 03012KT 04/02 A3042 RMK A01 T00370017  RH  087%=      5-min Rain = 0
KVA1 080204Z 02011KT 04/02 A3042 RMK A01 T00370017  RH  087%=      5-min Rain = 0
KVA1 080205Z 03011KT 04/02 A3042 RMK A01 T00370018  RH  087%=      5-min Rain = 0
KVA1 080206Z 03012KT 04/02 A3042 RMK A01 T00370018  RH  087%=      5-min Rain = 0
KVA1 080207Z 04012KT 04/02 A3043 RMK A01 T00370018  RH  087%=      5-min Rain = 0
KVA1 080208Z 04012KT 04/02 A3042 RMK A01 T00370018  RH  087%=      5-min Rain = 0
KVA1 080209Z 03010KT 04/02 A3042 RMK A01 T00380018  RH  087%=      5-min Rain = 0
KVA1 080210Z 04012KT 04/02 A3042 RMK A01 T00370018  RH  087%=      5-min Rain = 0
KVA1 080211Z 04014KT 04/02 A3042 RMK A01 T00370017  RH  086%=      5-min Rain = 0
KVA1 080212Z 03013KT 04/02 A3042 RMK A01 T00370016  RH  086%=      5-min Rain = 0
KVA1 080213Z 03011KT 04/02 A3042 RMK A01 T00370017  RH  086%=      5-min Rain = 0
KVA1 080214Z 03012KT 04/02 A3042 RMK A01 T00370017  RH  086%=      5-min Rain = 0
KVA1 080215Z 03011KT 04/02 A3042 RMK A01 T00370017  RH  086%=      5-min Rain = 0
KVA1 080216Z 04010KT 04/02 A3042 RMK A01 T00370017  RH  086%=      5-min Rain = 0
KVA1 080217Z 04012KT 04/02 A3042 RMK A01 T00380017  RH  086%=      5-min Rain = 0
KVA1 080218Z 03012KT 04/02 A3042 RMK A01 T00380017  RH  086%=      5-min Rain = 0
KVA1 080219Z 03013KT 04/02 A3042 RMK A01 T00380017  RH  086%=      5-min Rain = 0
KVA1 080220Z 03010KT 04/02 A3043 RMK A01 T00380016  RH  086%=      5-min Rain = 0
KVA1 080221Z 03014KT 04/02 A3042 RMK A01 T00380017  RH  086%=      5-min Rain = 0
KVA1 080222Z 03012KT 04/02 A3043 RMK A01 T00380017  RH  086%=      5-min Rain = 0
KVA1 080223Z 04012KT 04/02 A3043 RMK A01 T00380017  RH  086%=      5-min Rain = 0
KVA1 080224Z 03011KT 04/02 A3043 RMK A01 T00380017  RH  086%=      5-min Rain = 0
KVA1 080225Z 03011KT 04/02 A3043 RMK A01 T00380017  RH  086%=      5-min Rain = 0
KVA1 080226Z 03010KT 04/02 A3043 RMK A01 T00380017  RH  086%=      5-min Rain = 0
KVA1 080227Z 03010G19KT 04/02 A3043 RMK A01 T00390017  RH  086%=      5-min Rain = 0
KVA1 080228Z 03013KT 04/02 A3043 RMK A01 T00390017  RH  086%=      5-min Rain = 0
KVA1 080229Z 03012KT 04/02 A3043 RMK A01 T00390017  RH  086%=      5-min Rain = 0
KVA1 080230Z 04010KT 04/02 A3043 RMK A01 T00390017  RH  086%=      5-min Rain = 0
KVA1 080231Z 04011KT 04/02 A3043 RMK A01 T00390017  RH  086%=      5-min Rain = 0
KVA1 080232Z 03011KT 04/02 A3043 RMK A01 T00390017  RH  085%=      5-min Rain = 0
KVA1 080233Z 03011KT 04/02 A3043 RMK A01 T00390016  RH  085%=      5-min Rain = 0
KVA1 080234Z 03011KT 04/02 A3043 RMK A01 T00390016  RH  085%=      5-min Rain = 0
KVA1 080235Z 03012KT 04/02 A3043 RMK A01 T00390016  RH  085%=      5-min Rain = 0
KVA1 080236Z 03013KT 04/02 A3043 RMK A01 T00390016  RH  085%=      5-min Rain = 0
KVA1 080237Z 04010KT 04/02 A3043 RMK A01 T00390016  RH  085%=      5-min Rain = 0
KVA1 080238Z 03013KT 04/02 A3043 RMK A01 T00390016  RH  085%=      5-min Rain = 0
KVA1 080239Z 03010KT 04/02 A3043 RMK A01 T00390016  RH  085%=      5-min Rain = 0
KVA1 080240Z 04013KT 04/02 A3043 RMK A01 T00380016  RH  085%=      5-min Rain = 0
KVA1 080241Z 04012KT 04/02 A3043 RMK A01 T00380015  RH  085%=      5-min Rain = 0
KVA1 080242Z 03011KT 04/02 A3043 RMK A01 T00380016  RH  085%=      5-min Rain = 0
KVA1 080243Z 03009KT 04/02 A3043 RMK A01 T00380016  RH  085%=      5-min Rain = 0
KVA1 080244Z 03009KT 04/02 A3043 RMK A01 T00380016  RH  085%=      5-min Rain = 0
KVA1 080245Z 03011KT 04/02 A3043 RMK A01 T00380016  RH  085%=      5-min Rain = 0
KVA1 080246Z 03012KT 04/02 A3044 RMK A01 T00380016  RH  085%=      5-min Rain = 0
KVA1 080247Z 02013G18KT 04/02 A3044 RMK A01 T00380015  RH  085%=      5-min Rain = 0
KVA1 080248Z 02012KT 04/02 A3044 RMK A01 T00380016  RH  085%=      5-min Rain = 0
KVA1 080249Z 03012KT 04/02 A3044 RMK A01 T00380016  RH  085%=      5-min Rain = 0
KVA1 080250Z 03012KT 04/02 A3044 RMK A01 T00380016  RH  085%=      5-min Rain = 0
KVA1 080251Z 03012KT 04/02 A3044 RMK A01 T00380015  RH  085%=      5-min Rain = 0
KVA1 080252Z 03011KT 04/02 A3044 RMK A01 T00380015  RH  085%=      5-min Rain = 0
KVA1 080253Z 03012KT 04/02 A3044 RMK A01 T00380015  RH  085%=      5-min Rain = 0
KVA1 080254Z 03014KT 04/02 A3044 RMK A01 T00380015  RH  085%=      5-min Rain = 0
KVA1 080255Z 03013G18KT 04/02 A3043 RMK A01 T00380015  RH  085%=      5-min Rain = 0
KVA1 080256Z 04013KT 04/02 A3043 RMK A01 T00380015  RH  085%=      5-min Rain = 0
KVA1 080257Z 03012KT 04/02 A3043 RMK A01 T00380015  RH  085%=      5-min Rain = 0
KVA1 080258Z 03011KT 04/02 A3043 RMK A01 T00380015  RH  085%=      5-min Rain = 0
KVA1 080259Z 03013KT 04/02 A3043 RMK A01 T00390015  RH  085%=      5-min Rain = 0
KVA1 080300Z 03013KT 04/02 A3043 RMK A01 T00390015  RH  085%=      5-min Rain = 0
KVA1 080301Z 03012G19KT 04/02 A3043 RMK A01 T00390015  RH  085%=      5-min Rain = 0
KVA1 080302Z 04013KT 04/02 A3043 RMK A01 T00390015  RH  085%=      5-min Rain = 0
KVA1 080303Z 04013KT 04/02 A3043 RMK A01 T00390016  RH  085%=      5-min Rain = 0
KVA1 080304Z 03012KT 04/02 A3043 RMK A01 T00390016  RH  085%=      5-min Rain = 0
KVA1 080305Z 04012KT 04/02 A3043 RMK A01 T00390016  RH  085%=      5-min Rain = 0
KVA1 080306Z 04013KT 04/02 A3043 RMK A01 T00390016  RH  085%=      5-min Rain = 0
KVA1 080307Z 04014KT 04/02 A3043 RMK A01 T00390016  RH  085%=      5-min Rain = 0
KVA1 080308Z 03011KT 04/02 A3044 RMK A01 T00390016  RH  085%=      5-min Rain = 0
KVA1 080309Z 03010KT 04/02 A3044 RMK A01 T00390016  RH  085%=      5-min Rain = 0
KVA1 080310Z 03011KT 04/02 A3044 RMK A01 T00390016  RH  085%=      5-min Rain = 0
KVA1 080311Z 03012KT 04/02 A3044 RMK A01 T00400016  RH  085%=      5-min Rain = 0
KVA1 080312Z 03012KT 04/02 A3044 RMK A01 T00400016  RH  084%=      5-min Rain = 0
KVA1 080313Z 03012KT 04/02 A3044 RMK A01 T00400016  RH  084%=      5-min Rain = 0
KVA1 080314Z 04011KT 04/02 A3044 RMK A01 T00400016  RH  084%=      5-min Rain = 0
KVA1 080315Z 04009KT 04/02 A3044 RMK A01 T00400016  RH  084%=      5-min Rain = 0
KVA1 080316Z 04010KT 04/02 A3044 RMK A01 T00400016  RH  084%=      5-min Rain = 0
KVA1 080317Z 03013KT 04/02 A3044 RMK A01 T00400016  RH  084%=      5-min Rain = 0
KVA1 080318Z 03011KT 04/02 A3044 RMK A01 T00400016  RH  084%=      5-min Rain = 0
KVA1 080319Z 03012KT 04/02 A3044 RMK A01 T00400016  RH  085%=      5-min Rain = 0
KVA1 080320Z 03012KT 04/02 A3044 RMK A01 T00400016  RH  085%=      5-min Rain = 0
KVA1 080321Z 04010KT 04/02 A3044 RMK A01 T00390016  RH  085%=      5-min Rain = 0
KVA1 080322Z 04009KT 04/02 A3044 RMK A01 T00390016  RH  085%=      5-min Rain = 0
KVA1 080323Z 03009KT 04/02 A3044 RMK A01 T00390016  RH  085%=      5-min Rain = 0
KVA1 080324Z 04012KT 04/02 A3044 RMK A01 T00400016  RH  085%=      5-min Rain = 0
KVA1 080325Z 04011KT 04/02 A3044 RMK A01 T00400016  RH  085%=      5-min Rain = 0
KVA1 080326Z 04009KT 04/02 A3044 RMK A01 T00400017  RH  085%=      5-min Rain = 0
KVA1 080327Z 04011KT 04/02 A3044 RMK A01 T00390016  RH  085%=      5-min Rain = 0
KVA1 080328Z 04011KT 04/02 A3044 RMK A01 T00390016  RH  085%=      5-min Rain = 0
KVA1 080329Z 04009KT 04/02 A3044 RMK A01 T00390016  RH  085%=      5-min Rain = 0
KVA1 080330Z 04011KT 04/02 A3044 RMK A01 T00390017  RH  085%=      5-min Rain = 0
KVA1 080331Z 03010KT 04/02 A3044 RMK A01 T00390016  RH  085%=      5-min Rain = 0
KVA1 080332Z 03010KT 04/02 A3044 RMK A01 T00390017  RH  085%=      5-min Rain = 0
KVA1 080333Z 03011KT 04/02 A3044 RMK A01 T00400017  RH  085%=      5-min Rain = 0
KVA1 080334Z 04011KT 04/02 A3044 RMK A01 T00400017  RH  085%=      5-min Rain = 0
KVA1 080335Z 04010KT 04/02 A3044 RMK A01 T00400016  RH  085%=      5-min Rain = 0
KVA1 080336Z 04011KT 04/02 A3044 RMK A01 T00400017  RH  085%=      5-min Rain = 0
KVA1 080337Z 03010KT 04/02 A3044 RMK A01 T00390016  RH  085%=      5-min Rain = 0
KVA1 080338Z 04009KT 04/02 A3044 RMK A01 T00400017  RH  085%=      5-min Rain = 0
KVA1 080339Z 04012KT 04/02 A3044 RMK A01 T00400017  RH  085%=      5-min Rain = 0
KVA1 080340Z 03012KT 04/02 A3044 RMK A01 T00400016  RH  084%=      5-min Rain = 0
KVA1 080341Z 03012KT 04/02 A3044 RMK A01 T00400016  RH  085%=      5-min Rain = 0
KVA1 080342Z 03011KT 04/02 A3044 RMK A01 T00400016  RH  085%=      5-min Rain = 0
KVA1 080343Z 04011KT 04/02 A3044 RMK A01 T00400017  RH  085%=      5-min Rain = 0
KVA1 080344Z 03013KT 04/02 A3044 RMK A01 T00400016  RH  085%=      5-min Rain = 0
KVA1 080345Z 03012KT 04/02 A3044 RMK A01 T00400016  RH  085%=      5-min Rain = 0
KVA1 080346Z 04009KT 04/02 A3044 RMK A01 T00390016  RH  085%=      5-min Rain = 0
KVA1 080347Z 03010KT 04/02 A3044 RMK A01 T00390016  RH  085%=      5-min Rain = 0
KVA1 080348Z 03012KT 04/02 A3044 RMK A01 T00400016  RH  085%=      5-min Rain = 0
KVA1 080349Z 03012KT 04/02 A3044 RMK A01 T00400016  RH  085%=      5-min Rain = 0
KVA1 080350Z 03010KT 04/02 A3044 RMK A01 T00400016  RH  085%=      5-min Rain = 0
KVA1 080351Z 04011KT 04/02 A3044 RMK A01 T00400016  RH  085%=      5-min Rain = 0
KVA1 080352Z 04011KT 04/02 A3044 RMK A01 T00400016  RH  085%=      5-min Rain = 0
KVA1 080353Z 03009KT 04/02 A3044 RMK A01 T00400016  RH  085%=      5-min Rain = 0
KVA1 080354Z 03012KT 04/02 A3044 RMK A01 T00400016  RH  085%=      5-min Rain = 0
KVA1 080355Z 03010KT 04/02 A3044 RMK A01 T00400016  RH  085%=      5-min Rain = 0
KVA1 080356Z 03011KT 04/02 A3044 RMK A01 T00390016  RH  085%=      5-min Rain = 0
KVA1 080357Z 04010KT 04/02 A3044 RMK A01 T00390016  RH  085%=      5-min Rain = 0
KVA1 080358Z 04011KT 04/02 A3044 RMK A01 T00390016  RH  085%=      5-min Rain = 0
KVA1 080359Z 04010KT 04/02 A3044 RMK A01 T00390016  RH  085%=      5-min Rain = 0
KVA1 080400Z 03011KT 04/02 A3044 RMK A01 T00390016  RH  085%=      5-min Rain = 0
KVA1 080401Z 03010KT 04/02 A3044 RMK A01 T00390015  RH  084%=      5-min Rain = 0
KVA1 080402Z 03011KT 04/02 A3044 RMK A01 T00390015  RH  084%=      5-min Rain = 0
KVA1 080403Z 03010KT 04/02 A3044 RMK A01 T00390015  RH  084%=      5-min Rain = 0
KVA1 080404Z 03010KT 04/02 A3044 RMK A01 T00390016  RH  085%=      5-min Rain = 0
KVA1 080405Z 03010KT 04/02 A3044 RMK A01 T00390015  RH  085%=      5-min Rain = 0
KVA1 080406Z 04009KT 04/02 A3044 RMK A01 T00390016  RH  085%=      5-min Rain = 0
KVA1 080407Z 04010KT 04/02 A3044 RMK A01 T00390016  RH  085%=      5-min Rain = 0
KVA1 080408Z 03010KT 04/02 A3044 RMK A01 T00390015  RH  085%=      5-min Rain = 0
KVA1 080409Z 03009KT 04/02 A3044 RMK A01 T00390016  RH  085%=      5-min Rain = 0
KVA1 080410Z 03009KT 04/02 A3044 RMK A01 T00400016  RH  085%=      5-min Rain = 0
KVA1 080411Z 02006KT 04/02 A3044 RMK A01 T00400016  RH  085%=      5-min Rain = 0
KVA1 080412Z 02010KT 04/02 A3044 RMK A01 T00400016  RH  085%=      5-min Rain = 0
KVA1 080413Z 02011KT 04/02 A3044 RMK A01 T00400016  RH  084%=      5-min Rain = 0
KVA1 080414Z 03010KT 04/02 A3044 RMK A01 T00400016  RH  085%=      5-min Rain = 0
KVA1 080415Z 02010KT 04/02 A3044 RMK A01 T00400016  RH  085%=      5-min Rain = 0
KVA1 080416Z 03010KT 04/02 A3044 RMK A01 T00400016  RH  085%=      5-min Rain = 0
KVA1 080417Z 03011KT 04/02 A3044 RMK A01 T00390016  RH  085%=      5-min Rain = 0
KVA1 080418Z 03013KT 04/02 A3044 RMK A01 T00400017  RH  085%=      5-min Rain = 0
KVA1 080419Z 03009KT 04/02 A3044 RMK A01 T00400017  RH  085%=      5-min Rain = 0
KVA1 080420Z 03009KT 04/02 A3044 RMK A01 T00400017  RH  085%=      5-min Rain = 0
KVA1 080421Z 03008KT 04/02 A3044 RMK A01 T00400017  RH  085%=      5-min Rain = 0
KVA1 080422Z 03008KT 04/02 A3044 RMK A01 T00400017  RH  085%=      5-min Rain = 0
KVA1 080423Z 03009KT 04/02 A3044 RMK A01 T00400017  RH  085%=      5-min Rain = 0
KVA1 080424Z 03010KT 04/02 A3044 RMK A01 T00400017  RH  085%=      5-min Rain = 0
KVA1 080425Z 03012KT 04/02 A3044 RMK A01 T00400017  RH  084%=      5-min Rain = 0
KVA1 080426Z 03010KT 04/02 A3044 RMK A01 T00400016  RH  084%=      5-min Rain = 0
KVA1 080427Z 03011KT 04/02 A3044 RMK A01 T00400017  RH  085%=      5-min Rain = 0
KVA1 080428Z 03010KT 04/02 A3044 RMK A01 T00400017  RH  085%=      5-min Rain = 0
KVA1 080429Z 03010KT 04/02 A3044 RMK A01 T00400017  RH  085%=      5-min Rain = 0
KVA1 080430Z 03009KT 04/02 A3044 RMK A01 T00400017  RH  085%=      5-min Rain = 0
KVA1 080431Z 03007KT 04/02 A3044 RMK A01 T00400017  RH  085%=      5-min Rain = 0
KVA1 080432Z 03009KT 04/02 A3044 RMK A01 T00400017  RH  085%=      5-min Rain = 0
KVA1 080433Z 02009KT 04/02 A3045 RMK A01 T00400017  RH  085%=      5-min Rain = 0
KVA1 080434Z 03008KT 04/02 A3045 RMK A01 T00400017  RH  085%=      5-min Rain = 0
KVA1 080435Z 02010KT 04/02 A3045 RMK A01 T00400017  RH  085%=      5-min Rain = 0
KVA1 080436Z 03010KT 04/02 A3045 RMK A01 T00410017  RH  085%=      5-min Rain = 0
KVA1 080437Z 03009KT 04/02 A3045 RMK A01 T00410017  RH  085%=      5-min Rain = 0
KVA1 080438Z 03008KT 04/02 A3045 RMK A01 T00410018  RH  085%=      5-min Rain = 0
KVA1 080439Z 03010KT 04/02 A3045 RMK A01 T00410018  RH  085%=      5-min Rain = 0
KVA1 080440Z 02010KT 04/02 A3045 RMK A01 T00410017  RH  085%=      5-min Rain = 0
KVA1 080441Z 03011KT 04/02 A3045 RMK A01 T00410018  RH  085%=      5-min Rain = 0
KVA1 080442Z 03010KT 04/02 A3045 RMK A01 T00410018  RH  085%=      5-min Rain = 0
KVA1 080443Z 03008KT 04/02 A3045 RMK A01 T00410018  RH  085%=      5-min Rain = 0
KVA1 080444Z 03008KT 04/02 A3045 RMK A01 T00410018  RH  085%=      5-min Rain = 0
KVA1 080445Z 03007KT 04/02 A3045 RMK A01 T00410018  RH  085%=      5-min Rain = 0
KVA1 080446Z 02009KT 04/02 A3045 RMK A01 T00410018  RH  085%=      5-min Rain = 0
KVA1 080447Z 02007KT 04/02 A3045 RMK A01 T00410018  RH  085%=      5-min Rain = 0
KVA1 080448Z 03007KT 04/02 A3045 RMK A01 T00410018  RH  085%=      5-min Rain = 0
KVA1 080449Z 03008KT 04/02 A3045 RMK A01 T00410018  RH  085%=      5-min Rain = 0
KVA1 080450Z 03007KT 04/02 A3045 RMK A01 T00410018  RH  085%=      5-min Rain = 0
KVA1 080451Z 02007KT 04/02 A3045 RMK A01 T00410018  RH  085%=      5-min Rain = 0
KVA1 080452Z 03007KT 04/02 A3045 RMK A01 T00410018  RH  085%=      5-min Rain = 0
KVA1 080453Z 01008KT 04/02 A3045 RMK A01 T00410018  RH  085%=      5-min Rain = 0
KVA1 080454Z 02010KT 04/02 A3045 RMK A01 T00410018  RH  085%=      5-min Rain = 0
KVA1 080455Z 02007KT 04/02 A3045 RMK A01 T00410018  RH  085%=      5-min Rain = 0
KVA1 080456Z 02011KT 04/02 A3045 RMK A01 T00410018  RH  085%=      5-min Rain = 0
KVA1 080457Z 02008KT 04/02 A3045 RMK A01 T00410017  RH  085%=      5-min Rain = 0
KVA1 080458Z 02008KT 04/02 A3045 RMK A01 T00400017  RH  085%=      5-min Rain = 0
KVA1 080459Z 02009KT 04/02 A3045 RMK A01 T00400017  RH  084%=      5-min Rain = 0
KVA1 080500Z 03008KT 04/02 A3045 RMK A01 T00410016  RH  084%=      5-min Rain = 0
KVA1 080501Z 02009KT 04/02 A3045 RMK A01 T00400016  RH  084%=      5-min Rain = 0
KVA1 080502Z 03007KT 04/02 A3045 RMK A01 T00400016  RH  084%=      5-min Rain = 0
KVA1 080503Z 02008KT 04/02 A3045 RMK A01 T00410016  RH  084%=      5-min Rain = 0
KVA1 080504Z 02009KT 04/02 A3045 RMK A01 T00410016  RH  084%=      5-min Rain = 0
KVA1 080505Z 02009KT 04/02 A3045 RMK A01 T00410016  RH  084%=      5-min Rain = 0
KVA1 080506Z 01010KT 04/02 A3045 RMK A01 T00410016  RH  084%=      5-min Rain = 0
KVA1 080507Z 02009KT 04/02 A3045 RMK A01 T00400016  RH  084%=      5-min Rain = 0
KVA1 080508Z 02010KT 04/02 A3045 RMK A01 T00400016  RH  084%=      5-min Rain = 0
KVA1 080509Z 02008KT 04/02 A3045 RMK A01 T00400016  RH  084%=      5-min Rain = 0
KVA1 080510Z 03009KT 04/02 A3045 RMK A01 T00400016  RH  084%=      5-min Rain = 0
KVA1 080511Z 02008KT 04/02 A3045 RMK A01 T00400016  RH  084%=      5-min Rain = 0
KVA1 080512Z 02006KT 04/02 A3045 RMK A01 T00400016  RH  084%=      5-min Rain = 0
KVA1 080513Z 02007KT 04/02 A3045 RMK A01 T00400016  RH  084%=      5-min Rain = 0
KVA1 080514Z 02006KT 04/02 A3045 RMK A01 T00400016  RH  084%=      5-min Rain = 0
KVA1 080515Z 02007KT 04/02 A3044 RMK A01 T00410016  RH  084%=      5-min Rain = 0
KVA1 080516Z 03009KT 04/02 A3044 RMK A01 T00410016  RH  084%=      5-min Rain = 0
KVA1 080517Z 03009KT 04/02 A3044 RMK A01 T00410016  RH  084%=      5-min Rain = 0
KVA1 080518Z 03010KT 04/02 A3044 RMK A01 T00410017  RH  084%=      5-min Rain = 0
KVA1 080519Z 03009KT 04/02 A3044 RMK A01 T00400016  RH  084%=      5-min Rain = 0
KVA1 080520Z 02007KT 04/02 A3044 RMK A01 T00400017  RH  085%=      5-min Rain = 0
KVA1 080521Z 02009KT 04/02 A3044 RMK A01 T00400016  RH  085%=      5-min Rain = 0
KVA1 080522Z 02007KT 04/02 A3044 RMK A01 T00400016  RH  084%=      5-min Rain = 0
KVA1 080523Z 01008KT 04/02 A3044 RMK A01 T00400016  RH  085%=      5-min Rain = 0
KVA1 080524Z 02009KT 04/02 A3044 RMK A01 T00400016  RH  085%=      5-min Rain = 0
KVA1 080525Z 01009KT 04/02 A3044 RMK A01 T00400017  RH  085%=      5-min Rain = 0
KVA1 080526Z 02009KT 04/02 A3044 RMK A01 T00400017  RH  085%=      5-min Rain = 0
KVA1 080527Z 03008KT 04/02 A3044 RMK A01 T00400017  RH  085%=      5-min Rain = 0
KVA1 080528Z 02007KT 04/02 A3044 RMK A01 T00400017  RH  085%=      5-min Rain = 0
KVA1 080529Z 02009KT 04/02 A3044 RMK A01 T00400017  RH  085%=      5-min Rain = 0
KVA1 080530Z 02009KT 04/02 A3044 RMK A01 T00400017  RH  085%=      5-min Rain = 0
KVA1 080531Z 01008KT 04/02 A3044 RMK A01 T00400017  RH  085%=      5-min Rain = 0
KVA1 080532Z 02009KT 04/02 A3044 RMK A01 T00400017  RH  085%=      5-min Rain = 0
KVA1 080533Z 02009KT 04/02 A3044 RMK A01 T00400017  RH  085%=      5-min Rain = 0
KVA1 080534Z 03010KT 04/02 A3044 RMK A01 T00400017  RH  085%=      5-min Rain = 0
KVA1 080535Z 02008KT 04/02 A3044 RMK A01 T00400017  RH  085%=      5-min Rain = 0
KVA1 080536Z 03009KT 04/02 A3044 RMK A01 T00400017  RH  085%=      5-min Rain = 0
KVA1 080537Z 02010KT 04/02 A3044 RMK A01 T00400017  RH  085%=      5-min Rain = 0
KVA1 080538Z 02009KT 04/02 A3044 RMK A01 T00410017  RH  085%=      5-min Rain = 0
KVA1 080539Z 02010KT 04/02 A3044 RMK A01 T00410017  RH  085%=      5-min Rain = 0
KVA1 080540Z 02009KT 04/02 A3044 RMK A01 T00400017  RH  085%=      5-min Rain = 0
KVA1 080541Z 02008KT 04/02 A3044 RMK A01 T00400017  RH  085%=      5-min Rain = 0
KVA1 080542Z 02008KT 04/02 A3044 RMK A01 T00400017  RH  085%=      5-min Rain = 0
KVA1 080543Z 02009KT 04/02 A3044 RMK A01 T00400017  RH  085%=      5-min Rain = 0
KVA1 080544Z 02006KT 04/02 A3044 RMK A01 T00400017  RH  085%=      5-min Rain = 0
KVA1 080545Z 01008KT 04/02 A3044 RMK A01 T00410018  RH  085%=      5-min Rain = 0
KVA1 080546Z 02007KT 04/02 A3044 RMK A01 T00400017  RH  085%=      5-min Rain = 0
KVA1 080547Z 01006KT 04/02 A3044 RMK A01 T00410018  RH  085%=      5-min Rain = 0
KVA1 080548Z 02006KT 04/02 A3044 RMK A01 T00410018  RH  085%=      5-min Rain = 0
KVA1 080549Z 01007KT 04/02 A3044 RMK A01 T00410018  RH  085%=      5-min Rain = 0
KVA1 080550Z 02010KT 04/02 A3043 RMK A01 T00410018  RH  085%=      5-min Rain = 0
KVA1 080551Z 02009KT 04/02 A3043 RMK A01 T00410018  RH  085%=      5-min Rain = 0
KVA1 080552Z 02009KT 04/02 A3043 RMK A01 T00410018  RH  085%=      5-min Rain = 0
KVA1 080553Z 02010KT 04/02 A3043 RMK A01 T00410018  RH  085%=      5-min Rain = 0
KVA1 080554Z 02011KT 04/02 A3043 RMK A01 T00410018  RH  085%=      5-min Rain = 0
KVA1 080555Z 02009KT 04/02 A3043 RMK A01 T00400018  RH  085%=      5-min Rain = 0
KVA1 080556Z 02008KT 04/02 A3043 RMK A01 T00410018  RH  085%=      5-min Rain = 0
KVA1 080557Z 03008KT 04/02 A3043 RMK A01 T00410018  RH  085%=      5-min Rain = 0
KVA1 080558Z 01006KT 04/02 A3043 RMK A01 T00410018  RH  085%=      5-min Rain = 0
KVA1 080559Z 02008KT 04/02 A3043 RMK A01 T00410018  RH  085%=      5-min Rain = 0

Page generated in 0.0711 seconds.